GFSWCAN_850_dewp_114.txt.gz
Dewpoint
-1 -1 -1 -2 -2 -3 -4 -4 -5 -5 -5 -6 -8 -9 -5 -4 -3 -3 -3 -4 -5 -4 -4 -3 -3 -3 -3 -3 -3 -3 -4 -2 -2 -1 -0 -0 1 1 2 1 2 2 3 1 1 -0 0 -2 -3 0 -1 -2 -2 -2
-2 -2 -2 -2 -2 -3 -5 -4 -4 -5 -5 -6 -7 -10 -5 -3 -4 -3 -3 -5 -4 -4 -5 -3 -6 -6 -3 -2 -2 -2 -0 -1 -1 -3 -1 -2 1 1 0 2 0 1 -0 0 0 -1 -1 -2 -2 -2 -3 -3 -5 -4
-2 -2 -2 -2 -2 -3 -4 -4 -4 -4 -5 -6 -7 -7 -5 -4 -4 -4 -3 -3 -4 -6 -3 -2 -1 -3 -4 -2 -2 -2 -1 -2 -3 -3 -2 -0 1 -0 1 3 0 -0 -1 -1 -1 -1 -2 -2 -3 -4 -5 -6 -7 -7
-2 -2 -3 -3 -4 -4 -4 -4 -4 -5 -5 -5 -7 -7 -5 -4 -4 -4 -3 -4 -4 -4 -2 -2 -2 -2 -2 -3 -1 -2 -2 -2 -4 -4 -3 -2 -1 -1 -0 0 -1 -1 -2 -1 -1 -2 -2 -3 -3 -5 -7 -8 -8 -8
-2 -3 -3 -3 -4 -5 -5 -5 -5 -5 -5 -6 -6 -7 -6 -4 -4 -5 -4 -3 -3 -2 -2 -3 -3 -2 -2 -3 -2 -2 -2 -3 -4 -4 -4 -3 -2 -2 -1 -1 -1 -3 -1 0 -1 -2 -3 -3 -3 -7 -8 -8 -9 -9
-2 -2 -3 -3 -3 -5 -6 -5 -6 -5 -4 -5 -6 -6 -7 -6 -4 -5 -5 -4 -4 -4 -3 -3 -3 -1 -1 -2 -2 -2 -3 -3 -3 -3 -4 -4 -2 -3 -3 -1 -2 -3 -3 -3 -2 -2 -4 -4 -5 -7 -9 -9 -9 -9
-2 -2 -3 -3 -3 -5 -7 -7 -6 -5 -4 -5 -6 -6 -7 -8 -5 -5 -3 -1 -3 -3 -3 -3 -3 -2 -2 -4 -4 -3 -4 -4 -4 -3 -3 -4 -3 -2 -6 -2 -2 -3 -3 -4 -4 -4 -4 -4 -5 -7 -8 -9 -9 -10
-2 -2 -3 -3 -3 -4 -7 -8 -7 -6 -4 -5 -5 -6 -7 -6 -5 -3 -1 -2 -2 -2 -2 -3 -3 -2 -2 -4 -4 -3 -4 -3 -4 -3 -2 -3 -3 -2 -3 -2 -3 -4 -3 -3 -3 -3 -5 -6 -7 -8 -9 -9 -9 -10
-3 -3 -3 -3 -4 -5 -7 -8 -7 -6 -5 -5 -7 -7 -5 -5 -5 -5 -2 -1 -2 -2 -3 -3 -4 -4 -2 -3 -1 -3 -3 -4 -4 -4 -3 -3 -4 -1 -2 -2 -4 -4 -4 -4 -5 -5 -6 -8 -9 -9 -9 -9 -10 -10
-3 -3 -3 -4 -4 -5 -6 -8 -7 -5 -5 -6 -6 -6 -5 -7 -3 -3 -3 -1 -2 -1 -1 -1 -4 -3 -3 -2 -3 -4 -3 -4 -3 -3 -2 -4 -2 -3 -1 -3 -4 -4 -4 -5 -7 -7 -9 -9 -9 -9 -9 -10 -11 -12
-3 -4 -4 -6 -6 -6 -6 -8 -7 -5 -5 -7 -6 -4 -3 -3 -2 -2 -2 -2 -2 -2 -3 -3 -3 -3 -2 -4 -4 -4 -4 -4 -3 -3 -4 -4 -1 -5 -4 -4 -4 -4 -5 -6 -6 -8 -9 -8 -9 -10 -11 -12 -13 -14
-4 -4 -5 -7 -8 -8 -8 -8 -5 -5 -8 -8 -4 -2 -2 -2 -2 -1 -2 -2 -3 -3 -3 -2 -2 -2 -2 -2 -3 -2 -3 -5 -2 -4 -3 -5 -5 -7 -6 -7 -8 -7 -6 -6 -7 -7 -8 -8 -10 -12 -13 -14 -14 -15
-4 -4 -5 -7 -8 -9 -9 -7 -6 -8 -8 -4 -3 -2 -2 -3 -2 -2 -2 -1 -4 -3 -3 -3 -3 -2 -1 -2 -3 -3 -4 -5 -4 -3 -4 -4 -5 -7 -7 -7 -8 -9 -9 -9 -9 -9 -9 -10 -11 -13 -14 -15 -15 -15
-4 -4 -5 -6 -8 -8 -8 -7 -5 -5 -5 -5 -4 -3 -4 -3 -4 -5 -4 -4 -4 -2 -3 -2 -1 -1 -1 -3 -4 -7 -6 -3 -2 -3 -4 -6 -6 -8 -8 -8 -8 -9 -9 -9 -10 -10 -11 -12 -13 -14 -15 -15 -15 -16
-5 -5 -5 -5 -6 -8 -8 -6 -5 -6 -7 -4 -3 -5 -4 -4 -3 -1 -1 -1 -1 -3 -2 -3 -3 -4 -4 -3 -4 -5 -1 -1 -3 -5 -6 -5 -6 -7 -8 -8 -8 -9 -10 -11 -11 -12 -13 -14 -15 -15 -15 -15 -15 -16
-8 -6 -6 -5 -6 -8 -8 -8 -6 -6 -7 -5 -5 -4 -2 -2 -4 -3 -1 -0 -1 -1 -4 -5 -4 -6 -3 -4 -2 -4 -5 -4 -6 -6 -4 -5 -7 -7 -7 -8 -9 -9 -11 -12 -13 -14 -14 -15 -15 -15 -15 -16 -17 -17
-11 -9 -8 -6 -5 -6 -6 -8 -7 -6 -5 -5 -5 -4 -4 -3 -2 -4 -3 -1 -0 -3 -6 -3 -5 -5 -4 -2 -2 -5 -5 -7 -3 -4 -4 -6 -6 -7 -8 -9 -9 -11 -11 -13 -14 -14 -14 -15 -15 -16 -17 -18 -18 -15
-16 -11 -8 -5 -5 -5 -6 -6 -6 -6 -4 -5 -5 -4 -3 -3 -3 -3 -2 -1 -1 -3 -2 -3 -4 -3 -5 -3 -6 -6 -3 -3 -4 -4 -5 -6 -7 -7 -8 -9 -10 -12 -13 -14 -14 -15 -15 -15 -16 -15 -15 -14 -14 -13
-14 -11 -6 -5 -6 -7 -7 -7 -6 -5 -6 -6 -6 -5 -4 -4 -3 -2 -2 -1 -1 -0 -1 -2 -3 -5 -6 -2 -2 -3 -3 -4 -5 -5 -5 -6 -7 -8 -8 -10 -13 -13 -14 -14 -15 -15 -15 -16 -13 -12 -13 -14 -13 -14
-9 -8 -6 -5 -8 -9 -6 -6 -8 -6 -4 -5 -5 -5 -5 -5 -5 -5 -4 -3 -2 -0 -1 -3 -7 -3 -2 -2 -3 -3 -3 -4 -4 -6 -7 -7 -8 -8 -10 -13 -13 -14 -14 -14 -15 -15 -15 -15 -14 -13 -14 -14 -14 -14
-6 -7 -5 -6 -8 -6 -5 -5 -8 -8 -4 -5 -5 -4 -4 -4 -4 -5 -5 -4 -2 -1 -2 -1 -3 -3 -3 -3 -3 -3 -4 -4 -5 -6 -7 -8 -8 -9 -12 -13 -13 -13 -14 -15 -14 -15 -13 -12 -12 -12 -13 -13 -13 -15
-6 -5 -5 -6 -7 -6 -5 -4 -4 -5 -6 -4 -4 -4 -4 -4 -4 -5 -4 -3 -3 -2 -2 -3 -3 -4 -5 -6 -5 -5 -5 -5 -6 -7 -8 -8 -10 -11 -12 -13 -13 -13 -14 -14 -14 -13 -12 -12 -13 -12 -12 -13 -14 -18
-6 -5 -6 -6 -6 -4 -4 -4 -4 -4 -6 -4 -3 -4 -4 -3 -4 -3 -3 -3 -3 -3 -3 -4 -4 -5 -8 -7 -6 -6 -6 -7 -8 -8 -9 -9 -12 -13 -13 -13 -12 -13 -12 -11 -11 -10 -11 -11 -12 -12 -12 -13 -17 -19
-7 -8 -9 -8 -7 -5 -5 -4 -4 -4 -4 -4 -5 -5 -4 -3 -3 -4 -5 -3 -4 -4 -4 -4 -4 -6 -6 -6 -7 -7 -7 -7 -7 -8 -10 -11 -12 -13 -12 -11 -12 -11 -10 -10 -10 -11 -11 -11 -12 -13 -17 -18 -17 -16
-6 -5 -4 -5 -4 -5 -6 -6 -4 -4 -6 -6 -3 -6 -6 -5 -7 -5 -5 -5 -5 -5 -5 -5 -5 -6 -6 -7 -7 -7 -7 -7 -7 -8 -10 -11 -12 -10 -9 -10 -10 -10 -10 -10 -10 -10 -11 -12 -16 -16 -16 -18 -17 -16
-5 -5 -6 -6 -6 -6 -7 -8 -8 -7 -7 -5 -5 -5 -5 -6 -4 -4 -7 -7 -6 -6 -6 -6 -6 -6 -7 -7 -7 -7 -7 -8 -8 -10 -9 -9 -10 -10 -10 -10 -10 -10 -10 -11 -11 -12 -15 -16 -15 -15 -15 -15 -16 -17
-7 -7 -6 -5 -4 -3 -6 -4 -5 -8 -9 -7 -6 -6 -4 -4 -4 -8 -8 -8 -6 -6 -6 -7 -7 -7 -8 -8 -8 -8 -8 -8 -9 -9 -9 -9 -9 -9 -10 -11 -11 -12 -16 -19 -21 -21 -19 -16 -15 -15 -15 -16 -16 -18
-6 -6 -6 -6 -5 -5 -8 -8 -8 -7 -8 -6 -5 -4 -5 -7 -11 -10 -9 -9 -7 -7 -7 -7 -7 -8 -8 -9 -9 -9 -9 -9 -8 -9 -10 -10 -10 -10 -11 -13 -15 -15 -14 -15 -19 -26 -28 -28 -27 -26 -25 -24 -23 -22
-7 -7 -6 -8 -8 -9 -9 -9 -9 -9 -9 -8 -8 -10 -11 -12 -12 -11 -10 -9 -8 -8 -8 -7 -7 -7 -7 -8 -9 -9 -9 -9 -9 -10 -11 -12 -12 -13 -13 -12 -12 -14 -18 -26 -30 -30 -31 -31 -31 -31 -30 -27 -24 -23
-7 -7 -8 -9 -9 -10 -10 -10 -10 -10 -10 -10 -11 -13 -13 -12 -12 -11 -10 -10 -9 -9 -8 -8 -8 -8 -9 -9 -10 -10 -10 -10 -10 -11 -12 -14 -16 -19 -21 -22 -26 -28 -30 -30 -31 -31 -30 -28 -27 -25 -24 -24 -24 -23
-7 -7 -9 -10 -11 -11 -10 -10 -10 -9 -10 -12 -13 -14 -14 -12 -12 -11 -11 -11 -10 -10 -10 -10 -10 -10 -9 -10 -10 -10 -11 -11 -12 -17 -21 -19 -21 -23 -26 -28 -29 -31 -32 -32 -31 -29 -27 -26 -25 -25 -25 -24 -24 -25
-7 -8 -11 -12 -12 -11 -10 -11 -10 -12 -11 -11 -13 -13 -13 -14 -13 -12 -12 -11 -11 -11 -11 -11 -11 -11 -11 -12 -12 -13 -13 -15 -19 -19 -19 -21 -25 -28 -29 -31 -32 -31 -31 -29 -27 -26 -25 -25 -25 -26 -26 -26 -26 -26
-9 -11 -12 -12 -11 -11 -11 -9 -10 -9 -10 -11 -11 -12 -12 -14 -14 -14 -13 -11 -11 -12 -12 -12 -12 -12 -13 -13 -14 -17 -18 -19 -22 -26 -28 -29 -30 -32 -32 -31 -31 -28 -26 -26 -25 -26 -26 -26 -26 -25 -25 -26 -26 -27

GFSWCAN_850_dewp_117.txt.gz
Dewpoint
-1 -2 -2 -2 -2 -2 -2 -3 -4 -4 -4 -5 -10 -7 -4 -6 -5 -4 -5 -6 -5 -3 -3 -3 -3 -4 -3 -3 -4 -4 -5 -3 -3 -2 -1 -1 1 1 3 1 2 1 1 1 1 -1 0 -2 -3 -1 -1 -2 -2 -3
-1 -1 -2 -2 -2 -2 -2 -3 -3 -4 -5 -6 -10 -6 -5 -4 -4 -4 -5 -5 -6 -6 -5 -4 -6 -6 -5 -3 -3 -3 -2 -1 -1 -3 -2 -2 -0 0 0 1 -0 0 -1 -0 -1 -1 -2 -2 -2 -2 -3 -6 -5 -3
-1 -1 -1 -2 -2 -2 -2 -3 -5 -4 -5 -6 -9 -6 -4 -4 -4 -5 -4 -6 -6 -7 -4 -2 -1 -4 -6 -5 -3 -3 -2 -2 -3 -3 -2 -1 -1 -1 1 1 0 -0 -2 -1 -2 -1 -2 -3 -5 -4 -7 -7 -6 -5
-2 -2 -2 -2 -2 -3 -3 -3 -3 -5 -6 -6 -7 -5 -4 -4 -4 -5 -5 -5 -5 -4 -3 -2 -2 -2 -2 -2 -1 -2 -3 -2 -4 -4 -3 -3 -1 -1 -0 -0 -1 -2 -2 -2 -2 -2 -2 -3 -5 -7 -8 -8 -8 -8
-2 -2 -2 -2 -2 -3 -3 -3 -4 -5 -6 -6 -6 -5 -4 -4 -4 -3 -4 -4 -5 -4 -3 -2 -2 -2 -2 -3 -2 -2 -2 -3 -4 -4 -4 -3 -2 -2 -1 -2 -2 -3 -1 -1 -2 -3 -3 -3 -6 -7 -7 -8 -9 -9
-2 -2 -3 -3 -3 -3 -3 -3 -3 -5 -5 -7 -7 -6 -4 -4 -4 -4 -5 -4 -5 -4 -4 -4 -2 -2 -2 -2 -2 -2 -3 -3 -3 -3 -4 -4 -3 -3 -2 -2 -2 -3 -3 -3 -2 -3 -4 -5 -7 -8 -9 -9 -9 -9
-2 -3 -3 -4 -4 -3 -3 -3 -4 -4 -5 -6 -7 -7 -6 -4 -5 -6 -4 -3 -5 -5 -4 -4 -2 -3 -2 -4 -4 -3 -4 -4 -4 -4 -2 -4 -4 -2 -6 -2 -2 -3 -4 -3 -4 -4 -4 -5 -7 -9 -9 -9 -9 -10
-2 -3 -3 -4 -5 -5 -4 -5 -5 -4 -5 -6 -6 -7 -8 -5 -5 -3 -2 -3 -3 -3 -3 -4 -3 -2 -2 -4 -4 -3 -4 -3 -4 -3 -2 -3 -3 -3 -3 -2 -3 -4 -4 -4 -4 -4 -5 -5 -7 -8 -9 -9 -9 -10
-2 -3 -3 -4 -4 -6 -7 -6 -4 -4 -5 -5 -7 -6 -6 -6 -5 -2 -2 -2 -2 -3 -4 -4 -4 -4 -3 -3 -2 -3 -3 -6 -4 -4 -3 -3 -4 -4 -2 -2 -3 -4 -4 -4 -5 -5 -6 -7 -8 -9 -9 -9 -9 -11
-2 -3 -3 -4 -5 -7 -8 -5 -4 -4 -5 -7 -7 -7 -7 -6 -4 -2 -2 -3 -3 -2 -2 -3 -4 -2 -3 -2 -3 -4 -4 -4 -3 -4 -3 -4 -3 -3 -2 -3 -4 -4 -4 -4 -5 -7 -7 -8 -9 -9 -9 -9 -11 -12
-3 -3 -4 -4 -6 -8 -7 -5 -5 -5 -7 -7 -6 -4 -4 -4 -3 -2 -2 -2 -2 -2 -3 -3 -3 -4 -2 -5 -5 -4 -5 -5 -3 -3 -4 -5 -2 -5 -3 -3 -4 -4 -4 -5 -7 -8 -9 -9 -9 -9 -10 -11 -13 -14
-3 -3 -4 -5 -6 -7 -7 -5 -5 -6 -8 -7 -3 -3 -2 -2 -2 -3 -3 -2 -3 -3 -3 -3 -3 -2 -2 -2 -3 -3 -4 -5 -3 -4 -3 -4 -7 -6 -3 -4 -4 -4 -4 -6 -6 -7 -9 -8 -9 -11 -13 -14 -15 -15
-3 -4 -4 -5 -6 -7 -8 -6 -6 -7 -8 -3 -2 -2 -3 -2 -3 -4 -4 -3 -2 -3 -3 -2 -3 -3 -1 -2 -3 -4 -6 -6 -5 -2 -5 -6 -6 -7 -6 -6 -6 -6 -6 -6 -6 -7 -8 -9 -11 -13 -15 -15 -16 -16
-4 -5 -6 -6 -6 -7 -8 -5 -6 -7 -6 -4 -4 -3 -4 -4 -5 -5 -4 -4 -4 -3 -3 -2 -2 -2 -2 -4 -5 -7 -7 -4 -3 -3 -4 -7 -6 -7 -7 -6 -6 -7 -8 -8 -8 -8 -9 -10 -13 -14 -15 -16 -16 -16
-4 -5 -6 -8 -8 -8 -6 -5 -6 -5 -6 -4 -4 -4 -4 -5 -4 -2 -2 -2 -1 -3 -2 -3 -4 -4 -6 -5 -4 -7 -4 -2 -5 -5 -7 -5 -6 -7 -7 -7 -7 -8 -9 -9 -9 -10 -11 -12 -14 -15 -15 -16 -16 -16
-4 -5 -7 -8 -8 -7 -6 -5 -5 -5 -6 -5 -5 -5 -4 -2 -3 -3 -2 -1 -1 -2 -4 -5 -5 -7 -6 -6 -3 -4 -4 -6 -7 -8 -3 -5 -5 -7 -7 -7 -8 -8 -9 -10 -11 -12 -13 -15 -15 -15 -16 -16 -17 -18
-4 -5 -6 -6 -6 -6 -5 -5 -6 -7 -6 -6 -5 -4 -3 -4 -3 -2 -2 -0 -1 -3 -7 -4 -6 -5 -5 -4 -4 -5 -7 -8 -3 -3 -3 -5 -5 -6 -7 -7 -8 -9 -10 -12 -13 -14 -14 -15 -16 -16 -16 -18 -21 -18
-5 -5 -5 -5 -7 -7 -7 -8 -7 -7 -5 -6 -5 -4 -3 -4 -4 -4 -3 -0 -1 -3 -2 -4 -5 -4 -5 -4 -7 -8 -4 -4 -3 -4 -4 -5 -6 -6 -7 -8 -9 -10 -11 -12 -13 -14 -15 -15 -16 -17 -18 -17 -17 -16
-8 -5 -5 -6 -8 -8 -8 -8 -6 -6 -6 -6 -6 -5 -4 -4 -3 -3 -2 -1 -0 -0 -1 -2 -5 -5 -6 -6 -4 -3 -3 -3 -4 -4 -5 -5 -6 -7 -7 -8 -9 -10 -11 -13 -14 -15 -15 -16 -17 -16 -14 -14 -14 -14
-9 -6 -5 -5 -7 -9 -8 -7 -8 -6 -5 -6 -5 -5 -5 -6 -5 -5 -4 -3 -2 -1 -1 -3 -6 -4 -3 -3 -3 -3 -3 -3 -4 -4 -5 -5 -6 -7 -8 -8 -9 -10 -12 -14 -14 -14 -15 -16 -16 -15 -14 -14 -14 -14
-7 -5 -5 -6 -8 -7 -6 -7 -9 -10 -4 -6 -5 -5 -5 -5 -5 -5 -5 -5 -3 -2 -3 -1 -2 -4 -3 -4 -3 -4 -3 -3 -4 -4 -5 -6 -7 -7 -8 -8 -11 -13 -13 -14 -14 -15 -16 -17 -16 -14 -14 -14 -13 -13
-5 -5 -6 -7 -8 -7 -6 -5 -5 -5 -5 -4 -4 -4 -5 -5 -4 -5 -6 -4 -3 -4 -4 -3 -3 -3 -4 -5 -6 -6 -5 -5 -5 -5 -6 -7 -7 -8 -8 -10 -12 -13 -13 -14 -15 -15 -15 -15 -14 -13 -12 -12 -12 -13
-5 -6 -7 -7 -8 -7 -6 -4 -4 -5 -6 -5 -4 -5 -5 -4 -4 -4 -3 -4 -5 -4 -5 -3 -3 -3 -5 -6 -7 -7 -7 -6 -6 -6 -7 -7 -8 -8 -9 -11 -13 -13 -13 -14 -15 -14 -13 -12 -12 -12 -12 -12 -13 -14
-7 -8 -9 -9 -9 -6 -5 -4 -4 -4 -5 -5 -6 -6 -5 -4 -3 -4 -7 -4 -4 -4 -4 -3 -3 -4 -6 -6 -6 -7 -7 -7 -8 -8 -9 -9 -8 -9 -11 -13 -13 -13 -14 -13 -12 -12 -11 -11 -11 -12 -12 -13 -17 -18
-8 -8 -7 -6 -5 -5 -8 -7 -5 -4 -7 -6 -6 -6 -5 -4 -8 -7 -7 -6 -5 -5 -4 -4 -4 -5 -5 -5 -6 -6 -7 -7 -7 -7 -8 -10 -10 -11 -12 -11 -11 -12 -11 -11 -11 -10 -11 -11 -12 -12 -14 -16 -16 -17
-8 -6 -5 -6 -6 -6 -7 -6 -7 -7 -6 -5 -5 -5 -5 -9 -7 -7 -7 -8 -6 -6 -6 -6 -6 -5 -6 -6 -6 -7 -7 -7 -7 -7 -8 -11 -12 -13 -12 -11 -12 -12 -11 -10 -10 -11 -11 -11 -13 -15 -15 -15 -15 -15
-6 -7 -6 -5 -5 -4 -6 -5 -6 -8 -8 -8 -8 -7 -7 -7 -6 -9 -9 -8 -7 -6 -6 -6 -6 -6 -6 -7 -7 -7 -7 -8 -8 -9 -10 -10 -10 -10 -10 -10 -11 -10 -10 -11 -11 -13 -15 -17 -16 -15 -14 -14 -15 -15
-6 -5 -7 -6 -6 -6 -7 -8 -7 -7 -9 -6 -5 -5 -6 -6 -10 -11 -10 -9 -7 -7 -7 -6 -7 -7 -8 -8 -8 -8 -8 -8 -9 -9 -9 -9 -9 -9 -9 -10 -11 -12 -15 -15 -15 -16 -21 -26 -26 -24 -23 -23 -24 -25
-7 -6 -6 -7 -8 -8 -9 -8 -9 -9 -9 -8 -9 -12 -12 -12 -12 -11 -10 -9 -8 -8 -8 -8 -7 -7 -8 -8 -8 -8 -8 -9 -9 -9 -9 -10 -10 -10 -10 -11 -12 -12 -13 -15 -22 -28 -30 -31 -31 -31 -30 -28 -25 -23
-7 -7 -8 -9 -9 -9 -10 -10 -10 -10 -9 -10 -11 -12 -13 -13 -12 -11 -10 -10 -9 -9 -9 -8 -8 -8 -8 -8 -9 -9 -9 -9 -9 -10 -10 -10 -11 -12 -13 -13 -13 -15 -24 -29 -30 -31 -31 -29 -27 -26 -24 -24 -24 -24
-7 -8 -9 -10 -11 -11 -10 -10 -10 -10 -11 -12 -12 -12 -13 -13 -12 -11 -10 -10 -10 -10 -10 -9 -9 -9 -9 -9 -9 -10 -10 -10 -11 -11 -13 -19 -22 -22 -24 -25 -27 -28 -30 -31 -31 -29 -27 -26 -26 -25 -25 -25 -26 -25
-7 -9 -10 -11 -11 -11 -10 -10 -10 -11 -11 -12 -13 -13 -12 -13 -13 -12 -12 -11 -11 -12 -11 -11 -10 -11 -11 -11 -11 -12 -12 -12 -14 -18 -18 -18 -20 -25 -27 -29 -31 -32 -31 -29 -27 -26 -26 -26 -26 -26 -25 -25 -26 -26
-10 -11 -11 -12 -11 -11 -11 -10 -10 -10 -11 -12 -12 -12 -14 -14 -14 -14 -13 -12 -11 -12 -12 -12 -12 -12 -12 -13 -13 -15 -16 -17 -20 -25 -26 -28 -29 -31 -32 -32 -31 -28 -26 -26 -26 -26 -26 -26 -25 -25 -26 -27 -27 -25

GFSWCAN_850_dewp_123.txt.gz
Dewpoint
-1 -2 -1 -1 -1 -1 -1 -2 -3 -5 -11 -9 -5 -4 -2 -3 -3 -4 -5 -7 -8 -3 -2 -4 -6 -5 -4 -6 -6 -5 -4 -3 -3 -2 -1 -1 1 1 1 -0 0 -1 0 0 2 1 1 -3 -1 -1 -1 -2 -4 -5
-1 -1 -1 -2 -1 -1 -2 -2 -2 -3 -6 -11 -7 -5 -3 -2 -4 -5 -5 -6 -7 -5 -3 -6 -5 -5 -8 -7 -4 -2 -3 -1 -3 -2 -2 -2 1 0 0 1 -2 -1 -2 -1 -1 -1 -3 -3 -3 -3 -3 -3 -4 -6
-1 -2 -2 -2 -2 -2 -2 -2 -2 -3 -6 -11 -8 -5 -2 -2 -4 -6 -6 -6 -7 -3 -2 -3 -3 -5 -6 -5 -3 -3 -2 -2 -3 -3 -2 -1 0 -1 1 0 -1 -1 -3 -3 -2 -3 -4 -5 -6 -5 -4 -4 -4 -7
-1 -1 -1 -2 -2 -2 -2 -2 -2 -3 -6 -9 -7 -5 -4 -4 -5 -7 -9 -7 -7 -3 -2 -1 -2 -2 -3 -3 -4 -4 -3 -4 -5 -4 -3 -2 -0 -2 -0 -1 -1 -2 -3 -2 -2 -3 -4 -5 -7 -7 -6 -5 -7 -8
-2 -1 -2 -2 -2 -2 -2 -2 -3 -3 -6 -6 -5 -4 -4 -3 -5 -6 -8 -8 -6 -7 -2 -2 -2 -2 -2 -3 -3 -3 -4 -5 -5 -4 -3 -2 -2 -2 -1 -3 -2 -3 -3 -2 -2 -3 -4 -5 -7 -7 -7 -8 -8 -9
-1 -1 -2 -2 -2 -2 -2 -2 -3 -3 -8 -6 -4 -4 -4 -4 -6 -6 -7 -7 -4 -3 -3 -1 -3 -2 -2 -2 -3 -4 -4 -4 -4 -4 -3 -4 -2 -3 -1 -1 -3 -3 -3 -2 -2 -4 -5 -6 -7 -7 -8 -9 -9 -9
-2 -2 -2 -2 -2 -2 -2 -3 -3 -4 -5 -4 -3 -4 -3 -3 -5 -6 -6 -6 -4 -5 -3 -2 -1 -2 -3 -4 -4 -4 -4 -4 -4 -3 -3 -3 -3 -3 -3 -0 -4 -4 -4 -3 -4 -4 -6 -7 -7 -8 -9 -9 -9 -10
-1 -2 -2 -2 -2 -2 -3 -3 -3 -4 -5 -4 -3 -3 -3 -3 -5 -5 -4 -5 -5 -6 -4 -2 -1 -2 -4 -5 -4 -4 -4 -3 -4 -3 -2 -2 -3 -2 -1 -3 -3 -3 -4 -3 -4 -4 -6 -7 -8 -9 -9 -9 -9 -11
-2 -2 -2 -2 -2 -3 -3 -3 -4 -4 -5 -4 -4 -4 -5 -5 -5 -3 -4 -5 -6 -6 -4 -4 -1 -0 -4 -3 -3 -3 -3 -3 -4 -3 -3 -3 -3 -1 -3 -3 -3 -3 -3 -4 -4 -5 -5 -6 -8 -8 -9 -9 -9 -11
-2 -2 -2 -3 -3 -3 -3 -4 -4 -6 -7 -6 -4 -7 -6 -2 -4 -4 -5 -6 -6 -4 -4 -4 -4 -1 -3 -3 -4 -4 -4 -3 -2 -3 -3 -2 -1 -4 -2 -3 -4 -4 -4 -5 -5 -6 -6 -8 -8 -8 -8 -9 -9 -11
-2 -3 -3 -3 -3 -3 -4 -4 -5 -7 -8 -9 -7 -6 -2 -2 -2 -4 -4 -4 -3 -3 -4 -4 -4 -2 -3 -3 -3 -5 -3 -3 -2 -3 -2 -2 -2 -4 -2 -3 -4 -4 -5 -5 -5 -6 -6 -7 -7 -8 -9 -9 -10 -12
-3 -3 -3 -3 -3 -3 -4 -4 -5 -7 -7 -6 -5 -2 -3 -3 -3 -4 -3 -2 -3 -4 -4 -3 -3 -2 -2 -4 -3 -3 -3 -4 -2 -4 -2 -2 -4 -5 -3 -2 -4 -4 -4 -4 -5 -6 -7 -7 -7 -8 -9 -10 -12 -14
-4 -4 -4 -4 -4 -4 -4 -4 -6 -8 -6 -4 -5 -4 -3 -3 -4 -4 -3 -3 -3 -4 -3 -3 -2 -1 -2 -2 -4 -4 -3 -2 -5 -2 -3 -3 -7 -5 -3 -3 -4 -4 -4 -4 -5 -7 -8 -8 -8 -9 -10 -12 -14 -17
-4 -5 -7 -6 -5 -4 -4 -4 -6 -4 -4 -4 -4 -3 -6 -4 -5 -5 -4 -4 -5 -4 -3 -2 -3 -3 -3 -4 -6 -4 -5 -5 -4 -3 -4 -5 -6 -6 -4 -3 -4 -4 -4 -4 -6 -7 -7 -8 -8 -11 -13 -15 -17 -18
-4 -7 -8 -5 -4 -4 -5 -6 -4 -5 -6 -5 -5 -5 -5 -6 -5 -3 -3 -3 -3 -4 -3 -4 -4 -4 -5 -5 -6 -5 -3 -3 -4 -4 -5 -6 -4 -6 -4 -4 -4 -4 -4 -4 -5 -6 -7 -8 -9 -13 -15 -16 -17 -18
-7 -6 -6 -4 -4 -4 -5 -6 -6 -6 -7 -6 -5 -4 -4 -3 -3 -2 -3 -2 -3 -3 -5 -6 -5 -5 -4 -5 -5 -5 -4 -4 -5 -6 -6 -4 -4 -6 -4 -5 -5 -5 -5 -6 -7 -7 -8 -8 -10 -14 -16 -17 -17 -18
-7 -5 -5 -5 -5 -4 -5 -7 -7 -7 -7 -7 -5 -5 -4 -4 -3 -2 -1 -2 -3 -4 -4 -6 -6 -6 -5 -4 -4 -5 -5 -5 -8 -5 -5 -4 -4 -6 -6 -6 -6 -6 -7 -8 -8 -8 -9 -10 -12 -15 -16 -16 -17 -18
-6 -5 -5 -6 -5 -5 -8 -8 -9 -9 -7 -6 -5 -4 -4 -3 -3 -3 -2 -2 -3 -4 -3 -5 -5 -4 -6 -4 -5 -6 -7 -7 -6 -5 -4 -4 -5 -5 -6 -6 -6 -7 -8 -9 -9 -9 -10 -12 -14 -16 -16 -16 -18 -21
-5 -6 -6 -5 -5 -7 -7 -8 -8 -7 -6 -6 -5 -4 -4 -4 -3 -3 -2 -1 -1 -2 -3 -4 -5 -4 -4 -7 -7 -6 -4 -4 -4 -4 -4 -4 -5 -5 -6 -7 -7 -7 -8 -9 -10 -11 -13 -14 -15 -16 -17 -19 -20 -18
-7 -6 -6 -7 -10 -11 -10 -9 -7 -7 -7 -6 -5 -5 -5 -5 -5 -4 -2 -1 -1 -1 -2 -2 -4 -4 -4 -4 -4 -4 -4 -5 -5 -5 -5 -5 -5 -5 -6 -7 -7 -8 -9 -10 -11 -12 -13 -14 -15 -15 -16 -18 -16 -14
-6 -6 -8 -10 -11 -10 -9 -9 -9 -7 -6 -6 -5 -6 -6 -6 -6 -6 -5 -3 -2 -3 -2 -2 -4 -5 -4 -4 -4 -4 -5 -6 -5 -6 -5 -5 -5 -5 -6 -7 -7 -8 -9 -9 -11 -12 -13 -14 -15 -15 -16 -15 -14 -14
-6 -8 -9 -11 -11 -9 -7 -6 -6 -6 -5 -5 -5 -5 -6 -6 -7 -6 -6 -7 -7 -7 -5 -4 -5 -7 -6 -3 -3 -4 -5 -6 -6 -6 -6 -6 -6 -6 -6 -7 -7 -8 -9 -9 -10 -11 -13 -14 -15 -15 -15 -14 -13 -13
-7 -8 -9 -10 -10 -8 -6 -5 -6 -5 -8 -7 -6 -6 -6 -6 -5 -6 -6 -6 -7 -5 -6 -5 -5 -5 -5 -3 -3 -5 -5 -6 -6 -7 -8 -8 -8 -8 -7 -7 -8 -8 -8 -9 -11 -13 -14 -14 -15 -15 -13 -13 -13 -13
-7 -8 -9 -9 -9 -8 -6 -6 -6 -6 -7 -5 -7 -7 -6 -6 -5 -5 -5 -6 -5 -5 -5 -5 -4 -4 -3 -3 -5 -5 -6 -7 -7 -8 -8 -9 -10 -9 -8 -8 -8 -8 -10 -12 -13 -14 -14 -14 -13 -13 -12 -12 -12 -13
-9 -8 -8 -9 -7 -7 -8 -9 -5 -6 -8 -7 -7 -6 -6 -5 -5 -6 -6 -7 -6 -6 -6 -6 -5 -5 -5 -4 -5 -5 -6 -7 -7 -7 -8 -9 -10 -9 -8 -9 -10 -11 -12 -13 -13 -14 -13 -12 -11 -11 -11 -12 -12 -14
-11 -7 -10 -9 -8 -9 -8 -10 -8 -7 -10 -6 -6 -6 -5 -7 -6 -6 -8 -8 -8 -7 -7 -7 -6 -6 -5 -5 -5 -6 -6 -7 -7 -7 -8 -10 -11 -10 -10 -11 -12 -12 -12 -13 -12 -11 -11 -11 -11 -11 -12 -13 -14 -14
-10 -10 -6 -6 -7 -6 -7 -7 -6 -8 -9 -7 -9 -8 -8 -8 -8 -9 -9 -9 -8 -8 -7 -7 -7 -7 -6 -6 -6 -6 -7 -7 -7 -8 -9 -12 -12 -12 -12 -11 -11 -11 -11 -11 -10 -10 -11 -11 -12 -12 -13 -14 -14 -15
-7 -6 -9 -6 -6 -5 -8 -8 -9 -9 -9 -7 -6 -7 -8 -9 -10 -10 -10 -9 -9 -8 -8 -7 -7 -7 -7 -7 -8 -7 -8 -8 -8 -9 -10 -11 -11 -10 -10 -10 -11 -11 -11 -12 -13 -15 -16 -17 -17 -16 -16 -17 -19 -24
-7 -6 -6 -7 -7 -7 -6 -6 -6 -7 -7 -7 -6 -7 -10 -11 -11 -10 -10 -9 -9 -8 -8 -8 -8 -8 -8 -8 -8 -8 -9 -9 -9 -9 -9 -10 -10 -10 -10 -11 -11 -12 -13 -14 -16 -20 -27 -29 -30 -30 -30 -27 -25 -25
-7 -6 -6 -7 -8 -8 -8 -8 -9 -9 -9 -9 -9 -11 -12 -12 -11 -11 -10 -10 -9 -9 -9 -9 -9 -9 -9 -9 -9 -9 -10 -10 -10 -10 -10 -10 -10 -11 -11 -11 -12 -13 -17 -28 -31 -32 -31 -29 -27 -26 -26 -26 -26 -25
-7 -7 -8 -9 -10 -10 -10 -10 -10 -10 -10 -11 -11 -11 -12 -12 -12 -12 -11 -11 -10 -10 -10 -10 -10 -10 -10 -10 -10 -10 -10 -10 -10 -11 -11 -11 -11 -12 -12 -13 -18 -27 -30 -32 -30 -28 -27 -27 -27 -26 -26 -26 -27 -26
-8 -8 -9 -10 -11 -11 -11 -11 -11 -11 -12 -12 -12 -12 -13 -13 -13 -12 -12 -12 -12 -11 -11 -11 -11 -11 -11 -11 -11 -11 -11 -11 -11 -14 -19 -17 -16 -18 -24 -28 -30 -31 -29 -27 -27 -27 -27 -26 -26 -27 -28 -25 -24 -25
-10 -10 -11 -11 -11 -11 -11 -11 -11 -12 -12 -13 -13 -13 -13 -13 -14 -14 -13 -13 -12 -12 -12 -12 -12 -12 -12 -12 -12 -13 -14 -16 -19 -21 -24 -26 -28 -30 -31 -30 -28 -27 -27 -27 -26 -26 -27 -28 -26 -24 -24 -25 -26 -27

GFSWCAN_850_dewp_126.txt.gz
Dewpoint
-1 -1 -1 -1 -1 -1 -2 -3 -3 -8 -7 -6 -5 -3 -3 -3 -5 -5 -7 -8 -4 -2 -1 -3 -5 -4 -5 -7 -6 -4 -4 -3 -3 -2 -2 -1 -0 -0 0 -2 -1 -2 0 1 1 2 3 -3 -1 0 -1 -3 -5 -6
-1 -1 -1 -1 -1 -1 -2 -2 -4 -9 -6 -8 -5 -2 -3 -4 -5 -5 -6 -7 -5 -2 -2 -5 -7 -8 -7 -7 -4 -3 -3 -3 -4 -3 -3 -2 0 1 -1 2 -3 -0 -2 -1 -0 0 -3 -3 -2 -2 -3 -4 -5 -6
-1 -1 -2 -2 -1 -1 -2 -2 -3 -10 -11 -7 -5 -2 -3 -4 -5 -6 -6 -6 -6 -2 -3 -4 -2 -5 -4 -4 -4 -4 -1 -1 -2 -2 -1 -0 -0 -2 1 -1 -1 -2 -3 -2 -2 -3 -4 -4 -4 -3 -3 -4 -5 -6
-1 -1 -1 -2 -1 -2 -2 -2 -3 -5 -9 -10 -5 -2 -3 -5 -6 -6 -6 -6 -6 -3 -2 -1 -3 -4 -3 -4 -5 -5 -4 -4 -2 -2 -3 -2 -1 -1 -1 -2 -2 -2 -3 -2 -2 -3 -4 -5 -4 -4 -4 -5 -6 -7
-1 -1 -2 -2 -2 -2 -2 -2 -2 -3 -7 -12 -6 -4 -3 -5 -7 -7 -7 -6 -7 -3 -2 -1 -1 -2 -2 -4 -5 -5 -5 -3 -4 -4 -3 -1 -2 -2 -2 -2 -1 -3 -2 -0 1 -3 -3 -4 -5 -5 -6 -7 -8 -8
-1 -1 -1 -2 -2 -2 -2 -2 -2 -5 -7 -8 -5 -4 -5 -6 -7 -8 -7 -5 -5 -2 -3 -1 -2 -1 -2 -4 -3 -4 -4 -3 -4 -5 -4 -3 -1 -2 -1 -2 -2 -3 -2 -2 -2 -3 -3 -4 -5 -6 -7 -8 -8 -9
-1 -2 -2 -2 -2 -2 -2 -3 -3 -4 -5 -4 -4 -4 -5 -6 -7 -7 -4 -3 -4 -6 -2 -2 -2 -1 -1 -4 -4 -3 -4 -3 -4 -5 -5 -5 -2 -2 -0 -1 -3 -3 -2 -2 -3 -4 -5 -6 -6 -7 -8 -8 -9 -10
-1 -1 -2 -2 -2 -2 -2 -3 -3 -3 -4 -3 -4 -4 -4 -5 -8 -5 -4 -4 -6 -5 -3 -2 -0 -2 -4 -4 -3 -4 -3 -4 -4 -3 -3 -5 -3 -2 -2 -3 -3 -3 -3 -3 -4 -4 -5 -6 -7 -8 -8 -9 -10 -11
-1 -2 -2 -2 -2 -2 -3 -4 -3 -3 -3 -3 -3 -3 -4 -7 -6 -4 -5 -6 -7 -7 -2 -1 -1 -0 -4 -2 -2 -2 -3 -2 -3 -3 -4 -3 -3 -2 -4 -4 -3 -3 -3 -3 -4 -5 -6 -7 -8 -8 -9 -9 -10 -10
-2 -1 -2 -2 -2 -3 -3 -4 -3 -3 -3 -4 -5 -7 -5 -5 -5 -6 -6 -7 -7 -6 -3 -2 -2 -1 -3 -2 -3 -3 -3 -3 -2 -3 -2 -2 -2 -2 -3 -3 -3 -3 -4 -4 -5 -5 -6 -7 -8 -8 -9 -9 -9 -10
-2 -2 -2 -2 -3 -3 -4 -3 -4 -4 -3 -5 -10 -4 -3 -4 -4 -4 -3 -2 -3 -3 -3 -3 -2 -2 -3 -2 -2 -3 -2 -2 -2 -1 -2 -2 -2 -3 -2 -3 -3 -3 -4 -4 -5 -5 -6 -7 -8 -8 -8 -9 -9 -12
-2 -2 -2 -3 -3 -4 -4 -5 -7 -5 -6 -8 -3 -3 -3 -2 -3 -3 -3 -3 -4 -4 -3 -2 -2 -2 -2 -2 -3 -2 -1 -2 -2 -2 -2 -1 -3 -4 -3 -2 -3 -3 -4 -5 -5 -6 -6 -7 -7 -8 -8 -9 -10 -13
-3 -3 -3 -3 -3 -4 -5 -7 -8 -9 -6 -4 -5 -4 -3 -3 -3 -3 -2 -3 -3 -3 -3 -2 -0 -1 -1 -1 -1 -2 -1 -1 -3 -1 -2 -3 -5 -4 -2 -2 -3 -4 -4 -5 -5 -6 -7 -7 -7 -8 -9 -10 -12 -15
-3 -3 -3 -3 -4 -4 -6 -7 -8 -3 -5 -5 -3 -3 -3 -3 -3 -3 -4 -3 -3 -2 -2 -1 -1 -1 -1 -1 -1 -1 -2 -2 -1 -2 -4 -3 -3 -4 -3 -2 -3 -4 -4 -4 -5 -7 -7 -8 -8 -9 -10 -12 -15 -17
-3 -3 -3 -3 -4 -4 -7 -4 -4 -6 -6 -4 -5 -3 -3 -4 -3 -3 -3 -2 -3 -2 -1 -2 -2 -2 -2 -1 -3 -2 -1 -2 -3 -4 -3 -3 -4 -6 -4 -3 -4 -4 -4 -4 -5 -6 -7 -8 -8 -9 -13 -15 -17 -19
-5 -4 -4 -4 -4 -5 -6 -4 -6 -8 -7 -5 -4 -3 -3 -3 -2 -2 -2 -2 -3 -1 -4 -3 -3 -1 -2 -2 -2 -2 -4 -4 -3 -2 -3 -3 -4 -6 -5 -4 -4 -4 -4 -4 -4 -6 -6 -7 -8 -10 -15 -17 -18 -19
-4 -4 -4 -5 -6 -7 -6 -5 -7 -8 -6 -5 -4 -4 -3 -2 -2 -2 -2 -2 -3 -2 0 -4 -3 -3 -4 -3 -3 -5 -2 -3 -3 -2 -3 -5 -4 -5 -5 -4 -4 -4 -5 -5 -5 -6 -7 -8 -8 -12 -15 -17 -17 -18
-4 -4 -4 -5 -6 -8 -8 -9 -9 -7 -5 -4 -3 -3 -4 -3 -3 -2 -2 -3 -2 -2 -2 -4 -5 -3 -3 -3 -3 -2 -3 -4 -6 -6 -5 -4 -4 -5 -6 -5 -5 -6 -6 -7 -8 -8 -8 -8 -10 -13 -15 -16 -17 -18
-5 -5 -5 -7 -9 -10 -10 -10 -9 -6 -5 -5 -4 -4 -4 -4 -3 -2 -2 -3 -2 -2 -4 -2 -1 -3 -2 -4 -2 -2 -4 -4 -3 -5 -5 -4 -4 -5 -6 -6 -6 -6 -7 -8 -9 -9 -9 -10 -11 -14 -16 -17 -18 -19
-6 -5 -6 -7 -11 -12 -9 -9 -8 -6 -6 -4 -5 -4 -4 -4 -4 -2 -1 -1 -2 -2 -1 -1 -1 -0 -0 -3 -5 -4 -5 -5 -6 -5 -5 -5 -5 -5 -6 -7 -7 -7 -8 -8 -9 -10 -10 -11 -13 -15 -16 -17 -18 -17
-6 -7 -9 -12 -12 -11 -9 -7 -7 -5 -6 -5 -5 -5 -5 -6 -5 -4 -3 -2 -2 -1 -1 -0 -2 -4 -4 -4 -3 -4 -4 -5 -5 -5 -4 -6 -5 -5 -6 -6 -7 -8 -8 -8 -9 -11 -12 -12 -14 -15 -16 -16 -17 -12
-8 -10 -12 -12 -11 -8 -6 -6 -5 -5 -5 -4 -4 -5 -5 -5 -5 -4 -7 -4 -4 -3 -4 -4 -4 -5 -6 -6 -4 -3 -4 -5 -5 -6 -6 -7 -6 -6 -6 -6 -7 -8 -8 -8 -9 -10 -11 -12 -14 -15 -15 -15 -15 -14
-10 -11 -11 -12 -11 -7 -5 -5 -5 -6 -7 -6 -6 -6 -5 -5 -5 -7 -5 -6 -5 -6 -6 -6 -6 -5 -5 -5 -4 -3 -4 -5 -6 -6 -7 -8 -8 -8 -7 -7 -7 -8 -8 -8 -9 -10 -11 -12 -14 -14 -15 -15 -13 -13
-10 -10 -10 -10 -7 -6 -6 -6 -7 -7 -7 -7 -7 -6 -6 -5 -5 -5 -5 -5 -6 -6 -6 -5 -5 -5 -4 -4 -4 -5 -5 -6 -7 -7 -8 -8 -9 -9 -8 -8 -8 -8 -8 -9 -9 -10 -13 -14 -14 -15 -14 -13 -12 -12
-10 -9 -9 -8 -7 -6 -5 -6 -6 -7 -6 -7 -6 -6 -6 -4 -6 -6 -6 -5 -6 -7 -7 -6 -5 -5 -5 -5 -4 -5 -5 -6 -6 -7 -7 -8 -9 -9 -8 -8 -8 -8 -9 -11 -12 -13 -13 -14 -14 -13 -12 -11 -12 -12
-7 -8 -8 -8 -7 -7 -7 -5 -5 -5 -6 -6 -6 -6 -5 -6 -5 -5 -6 -8 -8 -8 -8 -7 -7 -6 -6 -5 -5 -5 -5 -6 -6 -7 -7 -8 -10 -9 -9 -9 -10 -11 -12 -12 -13 -13 -13 -13 -12 -11 -11 -12 -13 -14
-7 -6 -6 -7 -7 -7 -6 -6 -6 -5 -5 -4 -5 -5 -5 -4 -5 -7 -9 -9 -9 -8 -8 -7 -7 -7 -7 -6 -6 -6 -6 -7 -7 -7 -8 -10 -11 -12 -11 -10 -10 -11 -12 -12 -12 -11 -11 -11 -11 -11 -12 -13 -14 -14
-6 -6 -6 -6 -5 -5 -6 -6 -5 -5 -5 -6 -5 -5 -5 -5 -6 -9 -10 -9 -9 -8 -8 -8 -7 -7 -7 -7 -8 -7 -7 -8 -8 -8 -10 -11 -12 -11 -11 -11 -11 -11 -11 -10 -10 -11 -12 -13 -13 -14 -15 -15 -16 -20
-7 -6 -5 -7 -6 -5 -5 -5 -5 -6 -7 -6 -5 -5 -8 -10 -10 -10 -10 -10 -9 -9 -8 -8 -8 -8 -8 -8 -8 -9 -9 -9 -9 -10 -10 -10 -10 -11 -11 -11 -11 -11 -13 -15 -15 -16 -19 -22 -23 -23 -24 -27 -26 -25
-7 -6 -5 -6 -6 -6 -6 -7 -8 -8 -8 -8 -9 -10 -11 -11 -11 -11 -10 -10 -10 -9 -9 -9 -9 -9 -9 -9 -9 -9 -10 -10 -10 -10 -10 -10 -11 -11 -11 -12 -12 -13 -17 -26 -28 -31 -31 -30 -28 -26 -26 -26 -26 -27
-7 -7 -7 -7 -7 -9 -9 -9 -9 -10 -10 -10 -10 -10 -11 -12 -12 -12 -11 -11 -10 -10 -10 -10 -10 -10 -10 -10 -10 -10 -10 -10 -10 -10 -10 -10 -11 -12 -12 -13 -18 -28 -31 -31 -29 -27 -27 -27 -27 -26 -27 -28 -26 -24
-8 -7 -8 -8 -9 -10 -11 -10 -10 -10 -11 -11 -12 -12 -12 -12 -12 -13 -12 -12 -11 -11 -11 -11 -11 -11 -11 -11 -11 -11 -11 -11 -11 -12 -13 -12 -12 -14 -20 -28 -31 -30 -28 -27 -27 -27 -26 -26 -28 -28 -24 -24 -25 -26
-9 -9 -10 -10 -10 -10 -10 -10 -10 -11 -11 -12 -12 -13 -13 -12 -13 -14 -13 -12 -12 -12 -12 -12 -12 -12 -12 -12 -12 -12 -13 -14 -16 -16 -17 -21 -26 -29 -31 -29 -27 -27 -27 -27 -26 -27 -29 -26 -24 -24 -25 -26 -28 -28

GFSWCAN_850_dewp_129.txt.gz
Dewpoint
-5 -2 -1 -1 -1 -1 -2 -4 -4 -5 -3 -2 -1 -1 -2 -2 -4 -0 -4 -1 -2 -3 -2 -3 -4 -5 -6 -8 -4 -5 -4 -4 -5 -4 -6 -4 -3 -2 -1 -4 -3 -2 -1 1 0 1 4 -3 -1 1 -1 -4 -5 -5
-4 -1 -1 -1 -1 -1 -2 -3 -3 -7 -4 -3 -3 -3 -2 -3 -5 -4 -4 -2 -2 -3 -0 -1 -2 -4 -3 -5 -6 -4 -6 -8 -8 -7 -5 -5 -1 -0 -3 2 -4 -1 -3 1 0 1 -2 -2 -1 -2 -3 -4 -5 -5
-2 -1 -1 -1 -1 -1 -2 -3 -8 -6 -3 -5 -2 -2 -3 -4 -5 -4 -2 -2 -4 -3 -4 -4 -2 -1 -7 -5 -4 -5 -3 -2 -2 -0 -3 -2 -2 -4 -0 -3 -1 -2 -4 -1 -1 -2 -3 -3 -2 -3 -3 -4 -5 -6
-2 -1 -1 -1 -1 -1 -2 -3 -8 -5 -6 -7 -3 -2 -4 -5 -5 -3 -1 -2 -3 -4 -2 -3 -2 -2 -1 -2 -2 -1 -2 -1 -1 -2 -3 -2 -3 -2 -4 -2 -3 -3 -3 -2 -1 -3 -4 -3 -2 -2 -4 -5 -6 -7
-2 -1 -2 -1 -2 -1 -2 -3 -6 -11 -11 -6 -3 -2 -4 -6 -5 -6 -5 -2 -3 -3 -3 -2 -2 -1 -2 -2 -3 -2 -2 -3 -4 -4 -2 -3 -4 -3 -3 -3 -2 -4 -1 0 2 -3 -2 -3 -3 -3 -5 -6 -7 -8
-2 -1 -1 -1 -1 -1 -2 -3 -4 -8 -11 -6 -4 -3 -5 -7 -6 -2 -5 -5 -3 -4 -4 -1 -2 -2 -2 -3 -3 -4 -4 -4 -6 -6 -5 -3 -1 -2 -2 -3 -2 -3 -3 -2 -2 -3 -2 -3 -4 -5 -6 -7 -8 -9
-1 -1 -1 -1 -2 -2 -2 -2 -3 -6 -11 -6 -4 -4 -6 -8 -7 -3 -1 -2 -3 -2 -3 -3 -3 -2 -3 -3 -3 -4 -4 -4 -6 -6 -6 -6 -3 -3 -2 -3 -3 -3 -2 -2 -3 -2 -3 -4 -5 -6 -7 -8 -9 -10
-1 -1 -2 -2 -2 -2 -2 -2 -2 -4 -6 -4 -4 -5 -6 -8 -6 -2 -3 -4 -4 -3 -4 -2 -1 -3 -2 -4 -3 -3 -4 -5 -4 -5 -5 -7 -4 -4 -3 -4 -3 -3 -3 -2 -3 -4 -4 -5 -6 -7 -8 -9 -10 -10
-1 -2 -1 -1 -2 -2 -2 -3 -2 -4 -4 -3 -4 -5 -6 -4 -1 -3 -6 -7 -8 -1 -2 -1 -1 0 -3 -3 -3 -3 -4 -2 -4 -3 -5 -5 -4 -3 -5 -5 -4 -3 -3 -3 -4 -4 -5 -6 -7 -7 -8 -9 -10 -11
-2 -2 -2 -3 -3 -2 -3 -3 -2 -3 -3 -3 -4 -7 -7 -3 -5 -5 -4 -2 -1 -2 -2 -2 -2 -0 -4 -3 -3 -3 -3 -3 -2 -3 -4 -3 -3 -3 -5 -6 -5 -4 -4 -4 -4 -5 -6 -6 -7 -8 -8 -9 -10 -11
-1 -2 -2 -3 -3 -4 -3 -3 -2 -2 -4 -4 -8 -2 -4 -5 -2 -2 -3 -2 -3 -2 -3 -3 -3 -1 -2 -2 -2 -3 -2 -3 -2 -1 -2 -3 -3 -3 -3 -4 -4 -4 -4 -4 -4 -5 -5 -6 -7 -7 -8 -8 -9 -10
-2 -2 -2 -3 -3 -3 -3 -3 -3 -3 -3 -4 -4 -3 -3 -2 -2 -0 -2 -3 -5 -4 -3 -2 -3 -3 -1 -2 -3 -2 -2 -2 -2 -3 -1 -1 -2 -4 -3 -3 -3 -3 -4 -4 -4 -5 -5 -6 -6 -7 -8 -8 -9 -10
-2 -2 -2 -2 -3 -3 -3 -3 -3 -6 -6 -6 -4 -4 -1 -2 -1 -1 -1 -3 -1 -3 -1 -2 0 -1 -1 -2 -1 -2 1 -0 -3 -1 -2 -4 -4 -4 -3 -3 -3 -3 -4 -4 -5 -5 -6 -6 -6 -7 -7 -8 -9 -12
-2 -2 -3 -3 -4 -4 -6 -6 -6 -4 -3 -5 -3 -2 -1 -1 -3 -4 -5 -2 -2 -2 -2 -2 -1 -1 -1 -1 -0 0 -1 -2 -0 -1 -4 -3 -2 -3 -2 -2 -3 -3 -4 -4 -5 -5 -6 -6 -7 -7 -8 -9 -11 -14
-2 -3 -3 -4 -5 -7 -8 -4 -3 -6 -2 -3 -3 -2 -3 -3 -2 -2 -2 -2 -2 -1 -1 -2 -2 -2 -1 -0 -1 -2 -1 -1 -3 -4 -0 -0 -3 -3 -2 -2 -2 -3 -4 -5 -5 -6 -7 -7 -8 -8 -9 -10 -12 -16
-3 -3 -4 -5 -7 -9 -5 -6 -7 -7 -4 -4 -3 -3 -3 -2 -2 -2 -2 -2 -2 -1 -1 -4 -2 -0 -1 -1 -2 -1 -4 -5 -2 -1 -1 -1 -4 -4 -3 -3 -3 -3 -4 -5 -5 -6 -7 -8 -8 -8 -9 -12 -15 -17
-3 -4 -4 -6 -8 -5 -6 -7 -7 -7 -5 -4 -3 -3 -2 -1 -1 -2 -2 -2 -1 -2 0 -4 -1 -2 -4 -3 -2 -5 -2 -1 -1 -0 -1 -5 -4 -5 -5 -4 -4 -4 -4 -4 -4 -4 -6 -7 -8 -8 -10 -14 -16 -18
-4 -4 -5 -6 -5 -4 -8 -9 -6 -6 -4 -3 -2 -3 -3 -2 -2 -2 -3 -1 -1 -2 -3 -3 -5 -3 -1 -2 -2 -2 -1 -1 -1 -1 -2 -5 -4 -5 -6 -4 -4 -4 -4 -5 -5 -5 -6 -7 -8 -9 -11 -14 -16 -17
-4 -6 -7 -6 -6 -6 -7 -7 -5 -5 -4 -3 -3 -3 -3 -3 -3 -2 -2 -1 -0 -2 -3 -3 -1 -4 -2 -2 -0 0 0 0 -0 -2 -5 -5 -5 -5 -6 -5 -5 -5 -5 -6 -6 -7 -8 -8 -8 -9 -10 -14 -15 -14
-6 -8 -9 -12 -8 -8 -7 -6 -6 -6 -4 -4 -3 -3 -3 -3 -3 -2 -2 -1 -1 -1 -1 -2 -0 -0 0 0 0 0 -1 -3 -2 -1 -2 -5 -5 -5 -6 -6 -6 -6 -6 -7 -8 -8 -8 -9 -9 -9 -10 -13 -12 -11
-7 -8 -10 -8 -6 -6 -6 -7 -6 -5 -6 -5 -5 -6 -5 -3 -2 -2 -2 -2 -2 -2 -2 -0 -1 -3 -4 -4 -4 -3 -4 -3 -2 -2 -2 -3 -6 -5 -5 -6 -6 -7 -6 -7 -7 -8 -8 -8 -9 -10 -11 -11 -10 -10
-10 -12 -12 -13 -6 -6 -6 -5 -6 -6 -6 -5 -5 -6 -4 -3 -3 -3 -4 -3 -2 -2 -3 -3 -3 -3 -3 -6 -7 -5 -4 -4 -5 -5 -6 -6 -5 -5 -6 -6 -7 -7 -6 -7 -7 -7 -8 -8 -9 -10 -10 -11 -11 -11
-11 -11 -10 -8 -8 -6 -5 -6 -6 -8 -7 -7 -7 -6 -5 -4 -5 -5 -4 -5 -4 -5 -5 -5 -6 -6 -5 -6 -5 -4 -4 -4 -3 -5 -6 -6 -6 -7 -6 -7 -7 -7 -7 -7 -8 -8 -9 -9 -10 -10 -10 -11 -11 -11
-13 -12 -11 -7 -6 -5 -5 -6 -8 -8 -7 -8 -7 -6 -6 -5 -5 -5 -5 -5 -5 -5 -5 -6 -5 -5 -5 -4 -4 -5 -5 -5 -5 -7 -8 -7 -6 -7 -7 -7 -8 -8 -8 -8 -9 -9 -9 -10 -11 -11 -11 -11 -11 -12
-9 -9 -7 -6 -6 -6 -6 -7 -7 -8 -7 -7 -6 -6 -5 -6 -6 -6 -5 -4 -5 -6 -6 -6 -5 -6 -5 -5 -5 -5 -5 -6 -6 -6 -7 -7 -7 -8 -8 -9 -9 -10 -9 -9 -9 -10 -10 -11 -11 -11 -11 -11 -11 -12
-8 -6 -6 -7 -7 -7 -7 -6 -6 -6 -6 -6 -6 -7 -6 -6 -5 -5 -6 -6 -6 -7 -7 -7 -7 -6 -5 -6 -6 -6 -6 -6 -6 -7 -7 -8 -8 -8 -8 -9 -9 -10 -10 -10 -10 -10 -10 -11 -11 -11 -12 -12 -12 -13
-7 -6 -6 -6 -8 -7 -6 -5 -6 -6 -5 -5 -5 -5 -5 -5 -6 -5 -7 -8 -8 -9 -8 -8 -8 -8 -7 -7 -7 -7 -7 -7 -7 -7 -8 -8 -10 -10 -9 -9 -9 -10 -11 -10 -11 -10 -11 -11 -11 -12 -12 -13 -13 -14
-6 -6 -6 -6 -6 -6 -6 -5 -5 -5 -5 -6 -6 -5 -5 -4 -4 -7 -9 -9 -9 -9 -8 -8 -8 -7 -7 -7 -8 -8 -8 -8 -8 -8 -9 -10 -11 -11 -11 -10 -11 -12 -12 -11 -11 -11 -11 -11 -12 -12 -13 -13 -15 -16
-5 -5 -5 -6 -5 -5 -6 -6 -5 -5 -6 -5 -4 -4 -6 -9 -10 -10 -10 -9 -9 -9 -9 -9 -8 -8 -8 -8 -9 -9 -9 -10 -10 -10 -10 -10 -10 -11 -11 -11 -11 -11 -11 -12 -13 -14 -14 -15 -15 -16 -17 -19 -25 -26
-6 -5 -6 -6 -6 -6 -5 -6 -6 -8 -8 -7 -7 -8 -9 -11 -10 -10 -10 -10 -10 -10 -9 -9 -9 -9 -10 -10 -9 -9 -9 -10 -10 -9 -9 -10 -11 -11 -11 -11 -12 -13 -15 -19 -21 -25 -27 -27 -27 -27 -26 -26 -26 -27
-5 -5 -6 -6 -6 -6 -7 -9 -9 -9 -9 -9 -9 -8 -8 -11 -12 -11 -11 -11 -10 -10 -11 -11 -11 -10 -10 -10 -10 -10 -10 -10 -10 -10 -10 -10 -11 -12 -12 -12 -16 -26 -30 -31 -30 -28 -27 -27 -27 -27 -27 -28 -25 -25
-6 -6 -6 -7 -7 -9 -9 -8 -8 -8 -9 -9 -9 -10 -11 -10 -10 -13 -12 -11 -12 -12 -11 -12 -12 -11 -11 -11 -11 -11 -11 -11 -11 -11 -11 -12 -12 -12 -16 -26 -30 -31 -29 -27 -27 -27 -27 -27 -29 -26 -24 -25 -26 -28
-7 -7 -7 -8 -8 -9 -9 -9 -9 -9 -10 -10 -10 -10 -10 -10 -11 -14 -13 -13 -12 -12 -12 -12 -12 -12 -12 -12 -11 -11 -12 -12 -12 -12 -13 -14 -20 -27 -30 -30 -28 -27 -27 -27 -27 -29 -28 -25 -24 -25 -26 -28 -29 -28

GFSWCAN_850_dewp_132.txt.gz
Dewpoint
-5 -6 -5 -1 -1 -2 -2 -2 -2 -3 -1 -1 -1 -1 -0 -0 -1 0 1 1 1 0 -1 -3 -3 -3 -5 -5 -1 -3 -3 -5 -3 -2 -3 -4 -0 -3 -2 -4 0 -0 1 2 0 1 4 -3 -2 1 -1 -3 -4 -3
-6 -6 -4 -1 -1 -1 -2 -2 -4 -4 -3 -2 -1 -1 -1 -3 -2 0 1 1 1 -0 0 -2 -2 -3 -4 -4 -4 -5 -6 -6 -7 -4 -5 -4 -0 1 -4 2 -4 -1 -2 3 1 1 -2 -1 0 -2 -3 -4 -4 -4
-7 -4 -3 -1 -1 -1 -1 -3 -3 -5 -3 -2 -2 -2 -1 -4 -2 -1 -0 -1 -2 -2 -2 -2 -1 -3 -6 -5 -4 -4 -6 -4 -4 0 -2 -0 -1 -4 1 -1 -2 -2 -4 1 -0 -2 -3 -1 -2 -3 -4 -4 -5 -5
-5 -3 -1 -1 -1 -1 -1 -3 -5 -5 -2 -2 -3 -2 -4 -5 -1 -1 -1 -0 -3 -3 -1 -2 -2 -4 -3 -8 -4 -2 -3 -3 -2 -1 -3 -2 -0 -3 -1 -1 -1 -2 -4 -1 -1 -3 -3 -3 -1 -3 -4 -5 -5 -6
-5 -3 -1 -1 -1 -1 -2 -5 -6 -4 -2 -5 -2 -2 -5 -2 -1 -1 -1 -0 -2 -2 -2 -2 -2 -2 -2 -3 -3 -4 -2 -2 -3 -3 -1 -2 -4 -4 -4 -3 -2 -3 -1 0 1 -3 -2 -2 -2 -2 -4 -5 -7 -7
-5 -1 -1 -1 -1 -1 -3 -6 -5 -5 -6 -3 -4 -3 -5 -4 -3 -3 -5 -4 -4 -4 -4 -1 -3 -3 -3 -3 -3 -3 -3 -4 -6 -6 -4 -2 -1 0 0 -2 -3 -3 -3 -2 -1 -2 -2 -2 -2 -3 -4 -5 -7 -8
-3 -1 -1 -1 -2 -2 -2 -4 -10 -11 -5 -5 -3 -5 -6 -3 -2 -2 -1 -1 -2 -3 -3 -1 -3 -3 -4 -4 -4 -4 -5 -4 -6 -5 -6 -5 -3 -3 1 -2 -3 -3 -2 -2 -2 -2 -2 -3 -4 -5 -6 -7 -8 -9
-2 -1 -2 -1 -1 -1 -2 -5 -8 -9 -8 -3 -4 -6 -7 -7 -6 -2 -3 -2 -2 -3 -4 -1 -1 -3 -2 -4 -3 -3 -5 -5 -3 -5 -6 -6 -4 -5 -3 -3 -3 -3 -2 -2 -2 -3 -3 -4 -5 -6 -7 -8 -9 -10
-1 -1 -1 -1 -2 -2 -2 -3 -5 -8 -6 -4 -5 -6 -4 -2 -2 -4 -5 -7 -3 -1 -2 -0 -1 -0 -2 -3 -4 -3 -4 1 -4 -2 -4 -6 -3 -2 -5 -6 -5 -3 -3 -3 -4 -3 -4 -4 -5 -7 -7 -9 -10 -10
-1 -2 -1 -2 -2 -2 -2 -2 -4 -6 -4 -5 -5 -8 -6 -4 -6 -6 -4 -1 -0 -2 -2 -1 -2 -1 -3 -3 -3 -2 -2 -1 -1 -2 -4 -2 -0 -2 -6 -7 -5 -4 -4 -3 -4 -4 -4 -5 -6 -7 -8 -9 -10 -10
-2 -1 -2 -2 -3 -3 -2 -2 -3 -3 -4 -3 -6 -2 -5 -4 -2 -3 -5 -1 -2 -2 -3 -2 -3 -0 -3 -1 -1 -2 -0 -2 -2 -1 -2 -0 -1 -2 -5 -5 -5 -4 -4 -4 -4 -4 -5 -5 -6 -7 -7 -8 -10 -10
-1 -2 -3 -3 -3 -3 -2 -2 -2 -3 -4 -4 -4 -6 -4 -2 -1 -0 -2 -4 -5 -3 -3 -1 -2 -2 -0 -1 -3 -1 -1 -0 -0 -3 -1 -1 -0 -4 -4 -4 -4 -4 -4 -4 -4 -4 -5 -5 -6 -7 -7 -8 -9 -10
-2 -3 -4 -4 -3 -2 -2 -3 -3 -6 -6 -5 -8 -7 -1 -2 -1 -2 -2 -5 0 -1 -1 -1 0 -1 -1 -1 0 -1 1 1 -3 -1 -1 0 -4 -4 -3 -3 -3 -3 -3 -4 -4 -5 -5 -5 -6 -6 -7 -7 -8 -10
-2 -3 -4 -3 -3 -3 -3 -4 -3 -3 -4 -5 -6 -3 -0 -1 -2 -2 -2 -0 -1 -2 -1 -1 -1 -1 -1 -0 2 -0 -0 -2 -1 -1 -2 0 -2 -3 -2 -3 -3 -3 -3 -4 -4 -5 -5 -6 -6 -6 -7 -7 -8 -10
-3 -3 -3 -3 -3 -3 -3 -4 -5 -3 -2 -3 -4 -3 -2 -2 -1 -1 -2 -1 -1 -1 -1 -1 -1 -1 -0 -0 -1 -2 -1 -1 -2 -2 2 1 -3 -2 -2 -2 -2 -3 -3 -4 -5 -5 -6 -6 -6 -7 -7 -7 -8 -10
-3 -3 -3 -5 -6 -6 -4 -3 -4 -5 -3 -3 -3 -3 -3 -2 -2 -1 -2 -1 -1 -1 -2 -3 -1 1 -0 -1 -1 -1 -4 -4 -0 2 0 -1 -4 -2 -2 -2 -2 -3 -4 -5 -5 -5 -6 -7 -7 -7 -8 -8 -9 -10
-4 -4 -7 -7 -5 -5 -5 -4 -4 -4 -4 -3 -3 -2 -1 -1 -1 -2 -2 -1 -0 -0 1 -3 0 -2 -2 -3 -2 -4 1 2 0 -0 -1 -4 -4 -4 -3 -2 -3 -3 -4 -5 -5 -5 -6 -7 -7 -8 -8 -8 -10 -12
-5 -6 -8 -6 -5 -7 -6 -5 -5 -5 -3 -3 -2 -2 -2 -2 -2 -2 -3 -2 -0 -2 -3 -3 -4 -4 -1 -3 -1 -0 0 -0 -0 -0 -2 -4 -4 -4 -5 -4 -4 -3 -4 -4 -5 -5 -5 -6 -6 -7 -8 -9 -12 -14
-5 -6 -8 -6 -4 -6 -7 -7 -4 -5 -3 -3 -3 -3 -3 -2 -2 -2 -1 -1 -0 -2 -2 -3 -1 -3 -0 -0 1 1 0 0 -1 -1 -6 -5 -5 -5 -5 -5 -4 -4 -4 -4 -5 -5 -5 -6 -7 -8 -8 -9 -13 -15
-6 -6 -5 -6 -6 -7 -7 -6 -5 -5 -3 -3 -2 -2 -3 -3 -2 -2 -1 -1 -0 -3 -1 -1 0 -1 -0 -0 -0 -0 -1 -1 -1 -1 -2 -4 -6 -5 -5 -6 -5 -5 -5 -6 -6 -6 -7 -8 -8 -8 -8 -9 -11 -11
-9 -9 -7 -6 -6 -5 -6 -7 -5 -5 -4 -4 -4 -4 -2 -2 -2 -2 -1 -2 -2 -1 -1 -1 -2 -3 -3 -2 -2 -1 -3 -2 -1 -1 -1 -2 -5 -4 -6 -5 -5 -5 -6 -6 -6 -7 -7 -7 -8 -8 -9 -11 -10 -9
-8 -8 -7 -9 -6 -6 -5 -6 -6 -6 -5 -5 -5 -5 -4 -2 -2 -3 -3 -1 -1 -3 -3 -3 -3 -3 -3 -7 -7 -6 -5 -4 -5 -5 -5 -4 -4 -4 -5 -5 -6 -6 -6 -6 -6 -7 -7 -7 -8 -9 -10 -10 -10 -10
-9 -8 -7 -7 -8 -6 -5 -5 -7 -8 -6 -6 -6 -6 -5 -4 -5 -5 -4 -4 -4 -4 -4 -5 -5 -6 -6 -6 -5 -4 -4 -3 -3 -4 -4 -4 -5 -5 -5 -6 -6 -6 -6 -7 -7 -7 -8 -8 -8 -9 -10 -10 -10 -11
-15 -14 -10 -5 -6 -6 -6 -6 -8 -8 -7 -8 -7 -6 -5 -5 -5 -5 -5 -3 -5 -5 -5 -5 -5 -5 -4 -4 -4 -5 -5 -5 -5 -6 -6 -5 -5 -6 -6 -7 -7 -7 -7 -7 -8 -8 -9 -9 -9 -10 -10 -11 -11 -11
-10 -9 -6 -6 -6 -7 -7 -7 -7 -9 -7 -7 -7 -6 -5 -6 -5 -6 -5 -4 -5 -6 -6 -6 -5 -5 -5 -5 -6 -5 -5 -5 -5 -6 -6 -6 -7 -7 -8 -8 -9 -9 -9 -9 -9 -9 -9 -10 -10 -11 -11 -11 -11 -11
-6 -6 -6 -7 -7 -7 -7 -7 -7 -7 -8 -7 -6 -6 -6 -5 -6 -5 -5 -5 -6 -7 -7 -7 -7 -6 -6 -6 -6 -6 -6 -6 -6 -7 -7 -8 -8 -7 -8 -9 -9 -10 -9 -9 -10 -10 -10 -11 -11 -11 -11 -11 -11 -12
-7 -6 -7 -7 -8 -8 -6 -6 -7 -6 -6 -6 -6 -6 -6 -6 -6 -6 -7 -8 -8 -8 -9 -8 -8 -7 -7 -7 -7 -7 -7 -7 -7 -7 -8 -8 -9 -9 -8 -8 -9 -10 -10 -10 -10 -11 -11 -11 -11 -11 -12 -12 -13 -13
-7 -6 -6 -5 -6 -7 -6 -6 -6 -6 -6 -5 -6 -5 -5 -4 -5 -7 -8 -9 -9 -9 -9 -8 -8 -8 -8 -8 -8 -8 -8 -8 -8 -9 -9 -10 -10 -10 -9 -9 -10 -11 -11 -11 -10 -10 -11 -11 -12 -12 -13 -13 -13 -14
-6 -5 -6 -6 -6 -6 -6 -6 -5 -5 -5 -5 -4 -3 -6 -8 -9 -9 -9 -9 -9 -9 -9 -9 -9 -8 -8 -8 -9 -10 -10 -9 -9 -9 -9 -11 -11 -11 -11 -11 -11 -11 -11 -11 -11 -11 -12 -12 -12 -13 -14 -16 -19 -25
-6 -6 -7 -6 -6 -6 -5 -5 -5 -6 -7 -6 -6 -8 -8 -10 -10 -10 -10 -10 -10 -9 -9 -10 -9 -9 -9 -10 -10 -9 -9 -10 -10 -9 -9 -11 -11 -12 -12 -11 -11 -12 -14 -16 -16 -18 -19 -20 -21 -24 -26 -26 -27 -28
-6 -6 -6 -6 -6 -5 -6 -7 -7 -8 -8 -7 -8 -7 -7 -11 -11 -11 -10 -10 -10 -10 -10 -10 -10 -10 -10 -10 -10 -10 -10 -10 -10 -10 -10 -10 -11 -12 -12 -12 -17 -25 -29 -30 -30 -29 -28 -27 -27 -27 -28 -28 -25 -25
-5 -5 -5 -5 -5 -7 -8 -7 -6 -7 -7 -8 -8 -8 -9 -9 -9 -12 -12 -11 -11 -12 -11 -11 -12 -11 -11 -11 -11 -11 -11 -11 -11 -11 -11 -11 -12 -12 -13 -19 -29 -31 -30 -28 -28 -27 -27 -28 -29 -26 -25 -25 -27 -29
-6 -6 -6 -6 -7 -7 -7 -7 -8 -8 -9 -8 -8 -9 -9 -10 -11 -14 -13 -13 -13 -12 -12 -12 -12 -12 -12 -12 -11 -11 -11 -12 -12 -12 -13 -13 -14 -19 -27 -30 -28 -28 -28 -27 -28 -29 -27 -25 -25 -26 -27 -29 -29 -28

GFSWCAN_850_dewp_138.txt.gz
Dewpoint
-7 -8 -6 -6 -4 -4 -4 -3 -1 -2 -2 -3 -2 -2 -2 -1 -0 -0 1 1 1 2 1 1 2 0 0 -0 1 -0 0 -0 -1 -0 1 -0 -0 -1 1 1 2 3 3 2 2 3 3 -2 -3 -0 -2 -2 -3 -4
-8 -9 -7 -4 -3 -3 -4 -1 -1 -2 -2 -1 -2 -2 -1 -1 -1 -0 1 1 2 2 2 2 1 0 -1 -1 -0 -1 -2 -2 -3 -1 -2 -2 1 1 1 2 1 2 -0 1 1 1 -1 -0 -1 -2 -3 -2 -3 -4
-7 -7 -5 -3 -3 -3 -3 -1 -1 -2 -2 -1 -1 -1 -1 -1 -1 -1 1 1 1 1 1 1 2 1 1 1 0 -0 -1 -4 -5 -5 0 1 -1 -1 2 1 1 -0 -1 -1 -1 -2 -1 -2 -2 -3 -3 -3 -2 -3
-7 -6 -5 -3 -3 -4 -1 -1 -1 -2 -4 -2 -1 -1 -1 -1 -1 -0 0 1 1 -1 0 0 -1 0 1 -0 -1 -1 -3 -4 -3 -1 -1 0 -1 -1 0 0 0 -1 -1 -1 -1 -2 -2 -2 -3 -4 -4 -4 -3 -3
-6 -6 -4 -3 -4 -3 -1 -1 -1 -4 -5 -3 -1 -1 -1 0 1 0 1 1 -1 -2 1 -1 -1 -3 -2 -3 -2 -4 -5 -5 -4 -3 -1 -1 -1 -2 -2 -1 -0 -2 -1 -2 -2 -3 -3 -3 -4 -4 -4 -5 -5 -5
-6 -5 -4 -4 -3 -2 -1 -2 -3 -4 -4 -1 -1 -1 1 1 1 1 1 0 -1 -4 -4 -1 -3 -3 -4 -6 -5 -6 -6 -4 -5 -4 -1 -0 -2 -1 -1 0 -1 -2 -3 -3 -1 -3 -3 -2 -4 -5 -5 -5 -6 -7
-4 -4 -4 -3 -2 -1 -1 -2 -3 -5 -1 -1 -1 -1 0 0 -0 -1 -2 -2 -4 -6 -4 -2 -2 -4 -4 -4 -4 -4 -4 -4 -5 -5 -3 -2 -3 -2 -2 1 -1 -1 -1 -2 -2 -3 -2 -3 -5 -5 -5 -6 -6 -7
-3 -4 -6 -2 -1 -1 -1 -5 -4 -2 -1 -3 -1 -0 -0 -1 -1 -2 -4 -5 -3 -4 -4 -2 -1 -3 -3 -3 -4 -4 -5 -4 -4 -5 -3 -2 -5 -4 -1 -1 -1 -2 -2 -3 -3 -3 -3 -2 -3 -4 -4 -5 -6 -7
-5 -5 -2 -1 -1 -2 -5 -3 -3 -2 -3 -0 -1 -2 -3 -2 -3 -2 -2 -3 -3 -4 -2 -3 -2 -2 -3 -3 -3 -3 -3 -3 -3 -2 -3 -3 -3 -3 -2 -2 -2 -2 -3 -2 -2 -3 -3 -3 -3 -4 -4 -6 -6 -8
-5 -2 -1 -1 -4 -5 -5 -6 -2 -2 -1 -2 -4 -4 -5 -4 -6 -7 -8 -11 -5 -2 -3 -2 -2 -1 -3 -2 -2 -2 -2 -2 -1 -2 -4 -2 -2 -3 -2 -2 -3 -3 -3 -2 -3 -3 -3 -3 -4 -5 -6 -7 -8 -9
-2 -2 -2 -3 -4 -9 -6 -4 -2 -2 -2 -7 -7 -6 -4 -5 -8 -9 -5 -4 -2 -2 -1 -2 -2 -1 -2 -2 -2 -2 -2 -2 -1 -2 -3 -1 -0 -2 -5 -3 -3 -3 -3 -4 -4 -4 -4 -4 -5 -6 -7 -7 -8 -9
-2 -1 -3 -3 -8 -7 -4 -3 -2 -2 -6 -6 -4 -4 -6 -7 -3 -4 -4 -4 -2 -1 -2 -2 -1 -1 -1 -3 -2 -2 -2 -2 1 -2 -3 -2 -2 -4 -4 -3 -3 -3 -3 -3 -4 -4 -4 -4 -5 -5 -7 -7 -8 -9
-2 -2 -1 -3 -5 -4 -4 -4 -4 -5 -4 -6 -8 -9 -7 -4 -6 -8 -5 -3 -2 -1 -1 -1 -2 -2 -2 -2 -2 -3 -3 -3 -3 -5 -3 -2 -3 -3 -4 -4 -4 -4 -4 -4 -4 -4 -4 -4 -5 -6 -7 -7 -8 -9
-2 -2 -2 -3 -3 -3 -4 -4 -5 -7 -8 -11 -11 -7 -5 -6 -2 -1 -0 -1 -1 -1 -2 -2 -0 -1 -2 -2 -2 -4 -3 -3 -4 -3 -1 -4 -3 -3 -3 -4 -4 -4 -4 -4 -4 -4 -4 -5 -5 -6 -6 -7 -7 -8
-3 -3 -3 -3 -2 -3 -4 -5 -5 -7 -5 -4 -5 -4 -4 -2 -2 -2 -1 -1 -1 -2 -3 -2 -2 -2 -4 -3 -4 -4 -3 -3 -2 -2 -1 -2 -2 -2 -3 -3 -3 -3 -4 -4 -4 -5 -5 -5 -5 -6 -6 -7 -7 -7
-3 -3 -3 -2 -3 -4 -5 -5 -8 -9 -7 -5 -4 -4 -3 -4 -3 -2 -2 -0 -0 -2 -2 -2 -2 -3 -2 -3 -2 -3 -2 -2 -0 -1 -1 -3 -2 -2 -2 -3 -3 -3 -4 -4 -4 -5 -5 -5 -5 -6 -6 -7 -7 -7
-3 -3 -2 -3 -4 -5 -8 -10 -9 -7 -4 -4 -3 -2 -2 -3 -2 -3 -1 0 -1 -2 -3 -3 -3 -1 -2 -2 -2 -1 0 -0 -2 -2 -2 -2 -2 -1 -2 -2 -3 -3 -4 -4 -4 -5 -5 -6 -6 -6 -6 -7 -7 -7
-4 -3 -3 -3 -4 -6 -8 -7 -5 -4 -3 -3 -3 -2 -2 -3 -3 -2 -1 -0 -2 -2 -2 -3 -4 -3 -4 -1 -2 -0 -2 -2 -3 -3 -3 -3 -3 -3 -3 -3 -3 -4 -4 -4 -5 -5 -5 -5 -6 -6 -6 -7 -7 -7
-5 -5 -6 -7 -8 -8 -7 -5 -5 -3 -3 -2 -3 -3 -3 -3 -3 -2 -1 -1 -2 -2 -2 -2 -2 -1 -0 -1 -1 -1 -1 -2 -4 -4 -4 -3 -4 -4 -3 -3 -4 -4 -4 -4 -4 -5 -5 -5 -6 -5 -6 -6 -6 -7
-6 -6 -7 -7 -9 -8 -6 -5 -5 -4 -3 -2 -2 -3 -3 -3 -2 -1 -1 -1 -2 -2 -2 -2 -2 -3 -2 -1 -2 -2 -3 -4 -5 -5 -5 -4 -5 -4 -4 -4 -4 -4 -5 -5 -5 -4 -5 -5 -5 -6 -7 -8 -8 -9
-6 -6 -8 -10 -7 -6 -6 -6 -5 -4 -4 -3 -2 -2 -2 -2 -1 -1 -1 -1 -4 -3 -2 -3 -4 -3 -2 -2 -2 -1 -1 -1 -2 -1 -4 -5 -5 -5 -5 -5 -5 -5 -5 -6 -6 -6 -7 -7 -7 -7 -8 -8 -9 -11
-8 -9 -16 -14 -9 -6 -6 -6 -6 -5 -4 -4 -5 -4 -3 -3 -3 -2 -2 -5 -4 -4 -4 -4 -3 -4 -3 -3 -4 -4 -4 -5 -5 -5 -5 -5 -5 -5 -6 -6 -6 -6 -6 -6 -6 -7 -7 -7 -8 -8 -8 -9 -10 -10
-16 -17 -14 -13 -12 -8 -7 -7 -8 -8 -6 -6 -6 -4 -4 -4 -5 -4 -4 -5 -5 -5 -5 -5 -4 -5 -5 -4 -4 -3 -4 -5 -4 -4 -4 -5 -5 -5 -5 -6 -6 -6 -6 -6 -6 -7 -7 -7 -8 -8 -8 -9 -10 -10
-16 -14 -11 -7 -8 -8 -8 -8 -8 -7 -7 -6 -6 -6 -5 -5 -5 -3 -4 -5 -6 -6 -5 -5 -4 -4 -5 -5 -5 -4 -5 -5 -5 -5 -5 -5 -6 -6 -6 -7 -7 -7 -7 -7 -7 -7 -7 -8 -8 -8 -9 -10 -10 -10
-15 -7 -8 -9 -6 -8 -12 -11 -9 -9 -9 -8 -8 -6 -6 -6 -6 -5 -5 -5 -6 -7 -6 -6 -5 -5 -5 -5 -6 -5 -5 -5 -6 -6 -6 -6 -6 -7 -8 -8 -8 -8 -8 -7 -8 -8 -8 -9 -9 -9 -10 -10 -10 -11
-11 -7 -10 -8 -9 -9 -8 -9 -10 -10 -9 -9 -8 -6 -6 -8 -8 -6 -6 -6 -7 -7 -7 -7 -6 -6 -6 -6 -6 -7 -7 -6 -6 -6 -7 -7 -7 -7 -7 -9 -10 -9 -9 -9 -9 -9 -9 -10 -10 -10 -10 -11 -11 -11
-10 -10 -7 -6 -6 -7 -8 -7 -7 -9 -10 -9 -9 -10 -10 -9 -8 -7 -7 -7 -8 -8 -8 -8 -7 -7 -7 -8 -8 -7 -7 -7 -7 -7 -8 -8 -8 -8 -8 -9 -10 -10 -10 -10 -10 -10 -11 -10 -10 -11 -11 -11 -11 -11
-6 -6 -9 -7 -7 -7 -11 -11 -11 -9 -5 -5 -7 -9 -9 -8 -8 -8 -8 -8 -9 -9 -9 -9 -8 -8 -8 -8 -8 -8 -8 -8 -8 -9 -10 -9 -9 -9 -9 -9 -10 -11 -10 -10 -11 -11 -11 -11 -11 -11 -11 -12 -12 -13
-6 -6 -7 -8 -8 -8 -6 -6 -6 -6 -6 -6 -8 -9 -8 -9 -9 -9 -9 -9 -9 -9 -9 -9 -9 -9 -10 -10 -10 -10 -10 -10 -10 -11 -11 -11 -11 -11 -11 -11 -11 -11 -11 -10 -10 -10 -11 -11 -12 -12 -12 -13 -13 -14
-6 -6 -7 -7 -11 -9 -6 -6 -7 -7 -7 -7 -7 -8 -9 -10 -10 -10 -10 -10 -9 -9 -9 -9 -10 -10 -10 -10 -10 -10 -10 -10 -10 -10 -10 -11 -12 -12 -11 -11 -11 -11 -11 -11 -11 -12 -12 -13 -13 -13 -14 -16 -20 -25
-7 -8 -8 -7 -7 -6 -7 -7 -7 -8 -7 -7 -8 -8 -9 -10 -10 -10 -10 -10 -10 -10 -10 -10 -10 -10 -9 -10 -10 -10 -10 -10 -10 -10 -9 -10 -11 -12 -12 -12 -12 -14 -17 -17 -16 -16 -18 -21 -24 -26 -27 -28 -26 -26
-6 -6 -6 -8 -7 -7 -8 -8 -7 -7 -8 -8 -8 -8 -9 -10 -11 -12 -12 -11 -11 -11 -11 -11 -11 -11 -11 -10 -10 -11 -11 -11 -11 -11 -11 -11 -12 -12 -12 -14 -16 -17 -20 -27 -28 -28 -27 -28 -29 -27 -26 -27 -30 -30
-7 -6 -7 -7 -7 -7 -8 -9 -8 -7 -8 -8 -9 -9 -9 -10 -12 -13 -13 -13 -12 -12 -12 -12 -12 -12 -12 -12 -12 -11 -11 -12 -12 -12 -12 -13 -13 -13 -15 -18 -26 -28 -28 -28 -29 -29 -26 -26 -27 -29 -31 -30 -29 -29

GFSWCAN_850_dewp_141.txt.gz
Dewpoint
-6 -6 -6 -7 -7 -5 -5 -4 -2 -0 -1 -2 -2 -3 -3 -1 -1 -2 -2 -1 0 1 1 1 -0 0 1 1 1 1 1 1 -0 2 3 2 1 1 2 1 3 3 4 4 3 4 2 -2 -2 -1 -2 -2 -3 -4
-5 -6 -5 -5 -6 -5 -6 -5 -5 -4 -1 -2 -3 -3 -3 -2 -1 -1 -1 -1 0 1 1 2 1 2 1 0 -1 0 -0 -0 -1 1 -1 -1 1 1 1 3 1 2 -0 1 0 1 -1 -1 -2 -2 -2 -3 -3 -4
-6 -8 -8 -7 -6 -5 -5 -4 -4 -1 -3 -2 -2 -3 -2 -2 -2 -1 -1 -0 1 1 1 2 2 1 1 -1 -1 -1 -1 -2 -3 -2 -1 0 -0 0 3 1 2 -0 -2 -0 -1 -2 -1 -2 -2 -3 -3 -3 -3 -4
-7 -8 -8 -6 -4 -4 -4 -4 -3 -2 -2 -2 -2 -2 -1 -1 -1 -1 -1 -1 1 1 1 1 1 1 2 1 0 -0 -1 -1 -2 -0 -0 1 -1 -1 1 0 -0 -1 -2 -1 -2 -3 -2 -2 -2 -3 -3 -3 -3 -3
-9 -8 -7 -4 -4 -4 -4 -4 -2 -1 -2 -2 -2 -1 -1 -1 -1 -1 -1 -0 0 1 0 0 0 -0 1 1 1 1 1 -0 -0 -2 -1 -1 -1 -1 -2 -1 -1 -2 -2 -2 -2 -4 -4 -4 -2 -4 -4 -4 -3 -3
-12 -8 -6 -4 -4 -4 -4 -2 -1 -1 -3 -4 -3 -1 -1 -1 -1 -0 -1 0 0 1 -1 0 -1 -3 -1 -0 0 -0 -1 -2 -4 -3 -0 -0 -2 -2 -1 0 -1 -1 -3 -4 -2 -4 -4 -3 -3 -4 -4 -5 -5 -4
-13 -7 -6 -4 -4 -4 -3 -2 -1 -3 -4 -4 -1 -1 -1 -0 -0 0 0 1 -0 -2 -3 -1 -0 -3 -4 -3 -3 -3 -3 -4 -5 -4 -2 -2 -3 -3 -1 -0 -1 -1 -1 -1 -3 -4 -3 -3 -4 -4 -5 -5 -6 -7
-9 -6 -5 -4 -4 -3 -2 -2 -2 -3 -4 -2 -1 -1 -0 -1 -1 -0 -1 -3 -3 -3 -3 -1 -1 -3 -4 -4 -4 -4 -4 -4 -4 -5 -3 -4 -4 -4 -1 -1 -1 -1 -2 -3 -3 -3 -4 -3 -4 -5 -5 -5 -7 -6
-5 -5 -4 -5 -4 -1 -2 -2 -3 -3 -2 -1 -1 -1 -0 0 -0 -0 -1 -2 -2 -5 -2 -3 -2 -2 -3 -3 -3 -3 -5 -3 -2 -3 -4 -4 -3 -3 -3 -1 -2 -2 -4 -3 -3 -3 -3 -3 -5 -6 -5 -6 -6 -7
-4 -3 -5 -3 -2 -2 -1 -3 -4 -2 -2 -1 -1 -2 -1 -3 -4 -4 -7 -10 -4 -2 -3 -2 -2 -1 -3 -3 -2 -3 -4 -3 -2 -3 -4 -2 -1 -3 -3 -2 -3 -3 -4 -3 -3 -2 -2 -3 -4 -4 -4 -4 -5 -5
-4 -5 -3 -2 -1 -3 -4 -3 -2 -2 -2 -1 -3 -4 -3 -7 -9 -10 -6 -4 -2 -1 -2 -2 -2 -2 -2 -3 -2 -2 -3 -3 -2 -2 -4 -2 -0 -3 -3 -2 -2 -3 -4 -4 -4 -5 -5 -5 -4 -4 -5 -6 -7 -8
-3 -2 -2 -2 -5 -5 -5 -3 -2 -3 -3 -4 -4 -4 -7 -10 -7 -4 -4 -4 -2 -1 -2 -2 -1 -1 -1 -3 -2 -2 -2 -3 0 -3 -4 -2 -2 -4 -4 -2 -2 -3 -3 -3 -4 -4 -4 -4 -5 -5 -5 -6 -7 -8
-2 -3 -5 -7 -8 -4 -2 -2 -2 -1 -3 -5 -8 -9 -9 -6 -6 -8 -6 -2 -2 -2 -1 -2 -2 -1 -3 -2 -3 -3 -3 -4 -4 -6 -4 -3 -3 -4 -3 -3 -3 -3 -3 -3 -4 -4 -4 -4 -4 -5 -6 -7 -7 -9
-2 -4 -8 -5 -4 -2 -2 -2 -2 -5 -7 -9 -10 -8 -8 -6 -3 -2 -0 -2 -1 -1 -2 -2 -1 -2 -3 -2 -3 -4 -4 -4 -6 -4 -1 -4 -3 -3 -3 -3 -4 -4 -3 -4 -4 -4 -4 -4 -5 -5 -6 -7 -7 -8
-3 -4 -4 -3 -3 -2 -2 -2 -5 -9 -7 -6 -5 -3 -5 -2 -2 -2 -2 -1 -1 -2 -3 -3 -3 -3 -4 -4 -4 -4 -3 -3 -3 -3 -4 -2 -2 -3 -4 -4 -4 -4 -4 -4 -4 -4 -4 -5 -5 -6 -6 -7 -7 -7
-2 -3 -3 -3 -3 -3 -3 -5 -8 -9 -6 -5 -3 -4 -4 -4 -3 -2 -1 -1 -1 -3 -4 -3 -3 -4 -3 -4 -2 -4 -2 -3 -3 -1 -2 -2 -2 -3 -3 -3 -3 -3 -4 -4 -4 -5 -5 -5 -5 -6 -6 -6 -7 -7
-4 -3 -3 -3 -6 -6 -6 -9 -8 -6 -5 -4 -2 -2 -4 -3 -3 -2 -1 -0 -1 -3 -4 -3 -4 -2 -3 -3 -1 -1 -2 -2 -2 -3 -2 -2 -2 -2 -3 -3 -3 -3 -4 -4 -4 -5 -5 -5 -6 -6 -6 -6 -7 -7
-3 -3 -3 -3 -7 -8 -9 -8 -6 -5 -3 -3 -3 -3 -3 -3 -3 -1 -0 -1 -2 -2 -3 -4 -4 -3 -5 -2 -1 -1 -3 -3 -2 -3 -4 -3 -3 -3 -2 -2 -3 -3 -4 -4 -4 -5 -5 -5 -6 -6 -6 -6 -6 -6
-4 -4 -4 -5 -7 -8 -6 -5 -5 -3 -3 -3 -3 -3 -3 -3 -2 -1 -0 -1 -2 -2 -2 -2 -3 -1 -1 -2 -1 -2 -2 -3 -4 -4 -4 -4 -4 -4 -4 -4 -3 -4 -4 -4 -5 -5 -5 -5 -6 -6 -6 -5 -6 -6
-6 -7 -9 -8 -8 -8 -6 -5 -5 -4 -3 -3 -3 -3 -4 -4 -1 -1 -0 -2 -3 -3 -3 -3 -2 -3 -2 -2 -1 -2 -2 -5 -5 -5 -5 -5 -4 -4 -4 -4 -4 -4 -4 -4 -5 -5 -5 -5 -5 -5 -6 -6 -7 -8
-9 -9 -9 -8 -7 -6 -6 -5 -4 -4 -3 -3 -2 -2 -2 -2 -2 -1 -2 -4 -4 -3 -4 -4 -4 -3 -2 -2 -3 -3 -2 -2 -1 -2 -6 -5 -5 -5 -5 -5 -5 -5 -5 -5 -5 -6 -6 -6 -7 -7 -7 -8 -9 -9
-14 -17 -16 -12 -8 -6 -6 -6 -5 -4 -4 -4 -4 -3 -3 -3 -3 -3 -3 -6 -5 -5 -4 -4 -4 -3 -3 -3 -4 -3 -3 -3 -3 -5 -5 -5 -5 -6 -6 -6 -6 -6 -6 -6 -6 -6 -7 -7 -8 -8 -8 -9 -10 -10
-18 -18 -17 -15 -10 -8 -8 -8 -8 -7 -7 -6 -5 -5 -5 -4 -3 -3 -5 -5 -5 -5 -4 -4 -4 -4 -4 -3 -4 -4 -4 -5 -5 -5 -5 -5 -5 -6 -6 -6 -6 -6 -6 -6 -6 -6 -7 -7 -7 -8 -8 -9 -9 -10
-18 -14 -10 -7 -8 -8 -8 -8 -8 -8 -8 -7 -6 -6 -6 -5 -3 -5 -5 -6 -6 -5 -4 -4 -5 -5 -5 -4 -4 -4 -5 -5 -5 -5 -5 -6 -6 -6 -6 -7 -7 -7 -7 -7 -7 -7 -7 -7 -8 -8 -9 -9 -10 -10
-14 -8 -10 -11 -7 -9 -12 -12 -11 -9 -10 -8 -8 -7 -7 -6 -8 -6 -7 -6 -6 -6 -6 -5 -5 -4 -5 -6 -6 -5 -5 -6 -6 -6 -6 -6 -6 -7 -7 -8 -9 -9 -8 -7 -7 -7 -8 -8 -9 -9 -10 -10 -10 -11
-11 -7 -10 -8 -9 -9 -8 -10 -11 -11 -11 -10 -9 -7 -6 -9 -8 -7 -7 -7 -7 -7 -7 -7 -6 -5 -6 -6 -6 -7 -7 -6 -7 -6 -7 -7 -7 -7 -7 -8 -10 -10 -9 -9 -9 -9 -10 -10 -10 -10 -10 -10 -11 -11
-12 -11 -7 -6 -6 -7 -8 -7 -7 -10 -11 -10 -10 -11 -11 -10 -9 -8 -8 -7 -7 -8 -8 -8 -7 -7 -7 -7 -8 -8 -7 -7 -7 -7 -8 -8 -8 -8 -8 -9 -9 -10 -10 -10 -10 -10 -10 -10 -10 -10 -10 -11 -11 -11
-6 -6 -11 -8 -8 -7 -12 -13 -12 -7 -6 -6 -7 -10 -10 -10 -9 -9 -8 -8 -8 -9 -9 -8 -8 -8 -8 -8 -8 -8 -8 -8 -8 -9 -10 -10 -10 -9 -9 -9 -10 -11 -11 -11 -11 -11 -11 -10 -11 -11 -11 -11 -12 -13
-7 -7 -7 -8 -8 -7 -6 -7 -6 -7 -7 -6 -9 -11 -9 -9 -9 -9 -10 -9 -9 -9 -9 -9 -9 -9 -9 -9 -9 -9 -9 -10 -11 -11 -11 -11 -11 -11 -11 -11 -11 -11 -11 -11 -11 -11 -11 -11 -12 -12 -12 -12 -13 -14
-7 -6 -7 -7 -12 -9 -6 -7 -7 -7 -7 -7 -8 -9 -9 -10 -10 -10 -10 -9 -10 -10 -9 -9 -10 -10 -10 -10 -10 -10 -10 -11 -11 -10 -10 -10 -12 -11 -11 -11 -11 -11 -12 -11 -11 -12 -12 -12 -13 -13 -13 -14 -14 -17
-7 -8 -8 -7 -8 -8 -7 -7 -8 -8 -8 -8 -8 -8 -9 -9 -10 -10 -10 -10 -10 -10 -10 -10 -10 -10 -10 -10 -10 -10 -10 -10 -10 -10 -10 -10 -11 -11 -11 -12 -12 -12 -13 -13 -14 -14 -14 -15 -17 -21 -23 -26 -27 -26
-6 -7 -6 -9 -7 -7 -7 -8 -8 -8 -8 -8 -8 -9 -9 -10 -11 -11 -12 -11 -11 -11 -11 -11 -11 -11 -11 -10 -10 -11 -11 -11 -11 -11 -11 -11 -11 -12 -12 -14 -15 -15 -15 -18 -24 -27 -27 -27 -29 -28 -26 -26 -28 -30
-6 -6 -7 -7 -8 -8 -8 -8 -8 -8 -8 -9 -10 -10 -10 -10 -11 -12 -13 -12 -12 -12 -12 -11 -11 -11 -11 -11 -11 -11 -11 -12 -12 -12 -12 -13 -13 -13 -14 -15 -21 -27 -28 -28 -29 -29 -28 -26 -27 -29 -31 -31 -30 -30

GFSWCAN_850_dewp_147.txt.gz
Dewpoint
-3 -1 -1 -1 -1 -1 -1 -1 -1 -2 -3 -4 -4 -5 -4 -3 -2 -1 -1 -1 -1 -1 -1 -1 -0 -0 0 1 2 1 2 2 1 2 2 3 2 1 1 0 3 2 3 4 4 4 3 -2 -2 -1 -2 -3 -3 -3
-1 -1 -1 -1 -1 -1 -1 -1 -2 -3 -4 -5 -5 -3 -2 -1 -1 -1 -1 -1 -1 -1 -2 -1 -1 -3 -0 0 1 1 1 1 2 2 2 1 1 1 1 2 0 3 0 2 1 1 -1 -2 -2 -3 -3 -3 -3 -3
-1 -1 -1 -1 -1 -2 -2 -3 -3 -4 -5 -5 -4 -2 -1 -1 -1 -1 -1 -1 -2 -2 -1 -1 -4 -5 -2 1 -0 1 1 1 1 0 0 1 1 -0 2 1 2 0 -1 1 0 -0 -1 -1 -2 -2 -3 -3 -3 -4
-1 -1 -1 -2 -3 -4 -3 -3 -3 -3 -3 -4 -2 -1 -1 -1 -1 -1 -2 -2 -2 -1 -1 -1 -0 -1 -2 -0 1 1 1 1 1 1 1 1 1 -1 1 0 1 0 -1 0 0 -2 -2 -2 -2 -2 -3 -3 -3 -4
-2 -3 -4 -4 -4 -4 -4 -4 -4 -4 -4 -4 -2 -2 -1 -1 -1 -1 -1 -1 -1 -2 -1 -1 -2 -1 1 1 1 2 1 2 1 2 1 2 -1 -0 -0 -1 0 -1 -0 1 3 -3 -3 -4 -2 -2 -3 -3 -3 -4
-5 -5 -6 -7 -7 -6 -5 -5 -5 -4 -3 -2 -2 -2 -1 -2 -2 -1 -1 -1 -1 -2 -1 0 0 1 -1 -1 1 2 1 2 1 1 1 1 -1 -1 2 1 -1 -2 -3 -4 -3 -4 -5 -4 -2 -3 -3 -3 -3 -3
-9 -9 -10 -9 -8 -7 -5 -4 -4 -4 -1 -1 -2 -2 -2 -2 -2 -2 -2 -1 -1 -1 -1 -0 -0 -0 1 1 1 1 1 1 0 0 1 1 -1 -2 0 1 -1 -2 -3 -2 -4 -4 -3 -3 -3 -3 -4 -4 -4 -3
-9 -9 -10 -8 -5 -5 -4 -4 -4 -2 -1 -2 -2 -2 -2 -2 -2 -2 -3 -1 -1 -1 -1 0 -0 -0 1 0 -0 0 0 0 -0 -1 -2 -2 -3 -3 -0 -2 -1 -1 -2 -3 -3 -4 -4 -4 -3 -4 -4 -5 -5 -4
-13 -11 -10 -8 -6 -5 -4 -5 -3 -1 -2 -2 -4 -4 -4 -2 -2 -2 -4 -3 -1 -1 -1 -1 0 1 -0 -1 -2 -3 -0 -1 -3 -1 -2 -4 -2 -0 -3 -1 -1 -2 -3 -3 -3 -4 -4 -4 -4 -5 -5 -5 -5 -5
-16 -14 -10 -7 -5 -4 -4 -4 -2 -2 -2 -3 -3 -2 -2 -2 -2 -1 -1 -1 -1 -0 -0 -1 -2 0 -2 -2 -2 -3 -3 -1 -0 -2 -3 -1 -2 -5 -5 -4 -2 -3 -4 -3 -4 -4 -4 -4 -5 -5 -5 -5 -5 -5
-16 -12 -7 -7 -4 -4 -5 -2 -1 -2 -2 -2 -2 -2 -2 -1 -1 -1 -1 -1 -1 -0 -1 -2 -2 -1 -3 -1 -1 -3 -2 -2 -1 -1 -2 -1 -0 -3 -3 -2 -2 -4 -4 -4 -5 -5 -5 -5 -4 -5 -5 -5 -5 -5
-18 -10 -8 -5 -5 -5 -3 -1 -2 -3 -2 -2 -2 -2 -2 -1 -2 -3 -2 -3 -1 -0 -2 -1 -2 -2 -3 -3 -2 -2 -1 -2 -2 -3 -2 -2 -2 -3 -1 -2 -4 -5 -3 -4 -5 -5 -4 -4 -4 -5 -5 -5 -5 -6
-13 -7 -5 -5 -5 -2 -2 -3 -2 -2 -2 -2 -2 -2 -4 -6 -5 -4 -3 -1 -1 -2 -1 -1 -1 -2 -3 -3 -3 -2 -1 -0 -4 -1 -1 -2 -4 -3 -2 -2 -3 -3 -3 -4 -4 -5 -5 -4 -4 -4 -5 -5 -6 -7
-5 -4 -4 -2 -2 -2 -2 -3 -2 -2 -2 -3 -6 -4 -4 -5 -3 -2 -1 -1 -1 -1 -2 -3 -3 -2 -3 -2 -3 -2 -2 -3 -2 -2 -3 -3 -3 -2 -2 -2 -3 -3 -3 -4 -4 -4 -4 -4 -5 -5 -6 -7 -7 -8
-3 -2 -3 -4 -3 -2 -2 -2 -2 -3 -3 -4 -4 -3 -3 -2 -3 -2 -2 -1 -2 -2 -4 -4 -3 -4 -3 -3 -4 -2 -1 -1 -2 -3 -3 -3 -3 -2 -2 -2 -3 -3 -3 -4 -4 -5 -5 -4 -5 -5 -6 -7 -7 -8
-4 -3 -2 -2 -2 -3 -3 -3 -3 -4 -5 -5 -4 -4 -4 -3 -2 -2 -1 -1 -2 -3 -4 -6 -3 -2 -2 -3 -3 -3 -2 -3 -3 -3 -3 -3 -3 -3 -3 -3 -4 -4 -4 -4 -4 -4 -5 -5 -5 -5 -6 -7 -7 -7
-4 -3 -2 -3 -4 -5 -6 -6 -6 -5 -4 -3 -3 -3 -3 -3 -3 -2 -1 -1 -3 -4 -2 -3 -3 -2 -3 -2 -1 -3 -2 -1 -3 -3 -3 -3 -3 -4 -4 -4 -4 -4 -4 -4 -4 -5 -5 -5 -5 -6 -6 -6 -7 -7
-4 -3 -3 -4 -5 -6 -7 -6 -6 -4 -3 -4 -4 -3 -3 -2 -2 -1 -0 -2 -3 -3 -4 -3 -3 -3 -2 -1 -1 -1 -4 -4 -4 -3 -3 -3 -3 -3 -4 -4 -4 -4 -4 -4 -5 -5 -5 -5 -6 -6 -6 -6 -6 -6
-4 -5 -5 -5 -6 -8 -7 -5 -5 -4 -3 -4 -3 -3 -3 -2 -2 -1 -2 -3 -3 -3 -3 -3 -2 -1 -1 -2 -2 -3 -3 -4 -4 -4 -5 -4 -4 -4 -3 -3 -4 -4 -4 -4 -5 -5 -5 -5 -6 -6 -6 -6 -6 -6
-4 -6 -7 -9 -9 -8 -6 -5 -4 -4 -4 -3 -3 -3 -3 -2 -2 -2 -2 -3 -4 -4 -4 -3 -3 -4 -3 -3 -2 -3 -3 -3 -4 -5 -5 -5 -5 -5 -4 -4 -4 -4 -4 -4 -5 -5 -5 -5 -5 -5 -5 -5 -6 -6
-7 -6 -7 -8 -9 -7 -6 -5 -4 -4 -3 -3 -3 -3 -3 -2 -3 -3 -3 -4 -5 -4 -4 -4 -4 -4 -3 -3 -4 -4 -4 -4 -4 -5 -5 -5 -5 -5 -5 -5 -5 -5 -5 -5 -5 -5 -6 -6 -6 -6 -6 -7 -7 -8
-14 -12 -11 -10 -8 -7 -7 -5 -5 -4 -4 -4 -3 -3 -4 -4 -4 -4 -4 -5 -5 -5 -5 -4 -4 -4 -3 -3 -3 -3 -3 -4 -5 -5 -6 -5 -6 -6 -6 -6 -6 -6 -6 -6 -7 -7 -7 -7 -8 -8 -8 -8 -9 -10
-20 -20 -17 -12 -9 -9 -8 -8 -8 -7 -6 -5 -5 -5 -4 -4 -4 -5 -6 -6 -6 -5 -5 -4 -4 -4 -4 -4 -4 -5 -5 -6 -6 -6 -6 -6 -6 -6 -6 -6 -6 -6 -6 -6 -6 -6 -7 -7 -8 -8 -8 -9 -10 -11
-19 -16 -10 -9 -9 -10 -9 -9 -8 -8 -8 -7 -7 -7 -6 -4 -5 -7 -6 -6 -6 -5 -5 -5 -5 -5 -5 -5 -5 -5 -5 -5 -6 -6 -6 -6 -7 -7 -7 -7 -7 -8 -8 -7 -7 -7 -7 -7 -7 -8 -8 -9 -10 -10
-15 -10 -10 -12 -8 -9 -12 -12 -12 -9 -9 -9 -8 -8 -8 -5 -7 -7 -7 -7 -6 -6 -5 -5 -5 -5 -5 -5 -5 -5 -5 -5 -6 -6 -6 -6 -7 -7 -7 -8 -9 -10 -9 -8 -7 -7 -7 -8 -8 -8 -9 -10 -10 -10
-11 -7 -10 -9 -9 -9 -9 -9 -11 -11 -11 -10 -10 -8 -8 -10 -9 -7 -8 -7 -7 -6 -6 -5 -5 -5 -6 -6 -6 -6 -6 -6 -6 -6 -6 -7 -7 -7 -7 -8 -10 -10 -9 -9 -8 -9 -9 -9 -9 -10 -10 -10 -11 -11
-13 -11 -7 -7 -6 -7 -9 -8 -8 -11 -11 -10 -10 -12 -11 -10 -10 -10 -8 -8 -7 -7 -7 -7 -7 -6 -6 -6 -7 -7 -8 -7 -7 -7 -7 -8 -8 -8 -8 -9 -9 -10 -10 -10 -10 -10 -10 -10 -10 -10 -10 -11 -11 -11
-7 -7 -12 -9 -8 -8 -14 -13 -10 -7 -9 -7 -8 -10 -10 -10 -10 -9 -9 -8 -8 -8 -8 -8 -7 -7 -7 -8 -8 -8 -8 -7 -8 -8 -9 -10 -9 -9 -9 -10 -10 -11 -11 -11 -12 -12 -11 -11 -11 -11 -11 -11 -11 -12
-7 -7 -8 -10 -9 -9 -9 -10 -10 -7 -7 -7 -9 -8 -9 -9 -9 -9 -9 -9 -9 -9 -9 -8 -8 -8 -9 -9 -9 -8 -9 -9 -10 -11 -11 -11 -11 -11 -11 -11 -11 -11 -11 -11 -12 -11 -12 -12 -12 -12 -12 -12 -12 -13
-8 -7 -7 -11 -14 -11 -8 -8 -8 -8 -8 -8 -8 -9 -9 -9 -10 -10 -10 -9 -9 -9 -9 -9 -10 -9 -10 -10 -9 -10 -10 -10 -10 -11 -11 -11 -12 -12 -11 -12 -12 -11 -11 -11 -11 -12 -12 -12 -13 -13 -13 -13 -13 -14
-6 -7 -8 -8 -9 -8 -9 -8 -8 -8 -9 -8 -8 -9 -9 -9 -9 -10 -10 -10 -10 -10 -10 -10 -10 -10 -10 -10 -10 -10 -10 -10 -10 -10 -11 -11 -11 -11 -12 -12 -12 -12 -12 -12 -12 -12 -13 -13 -14 -15 -15 -16 -16 -19
-6 -7 -7 -10 -8 -8 -8 -8 -8 -8 -9 -9 -9 -9 -9 -9 -10 -10 -11 -10 -10 -10 -10 -10 -10 -10 -10 -10 -11 -11 -11 -11 -11 -10 -10 -11 -11 -11 -12 -12 -13 -15 -15 -14 -14 -16 -21 -22 -23 -24 -26 -27 -27 -28
-7 -7 -8 -8 -8 -8 -8 -9 -9 -10 -10 -10 -10 -10 -10 -10 -10 -11 -12 -12 -11 -11 -11 -11 -11 -11 -11 -11 -11 -11 -11 -11 -11 -11 -12 -12 -12 -12 -13 -14 -14 -16 -23 -27 -28 -28 -29 -28 -27 -27 -28 -31 -31 -30

GFSWCAN_850_dewp_153.txt.gz
Dewpoint
-5 -4 -3 -4 -5 -3 -2 -1 -0 -0 -0 0 0 -0 -1 -1 -0 -1 -1 -0 0 -2 -3 -3 -3 -3 -2 0 0 -2 -1 -1 2 3 3 0 0 -2 -0 -3 2 0 2 2 1 1 2 -6 -2 -0 -0 -2 -2 -3
-5 -5 -4 -4 -4 -1 -0 -0 -0 0 -0 0 0 -0 0 0 -0 -1 -0 -0 -2 -0 -1 -1 -2 -3 -3 -4 -1 -2 -2 2 2 3 4 1 3 -0 0 4 -3 2 -2 -0 -1 -0 -1 -2 -1 -1 -2 -2 -2 -2
-6 -6 -5 -5 -3 -2 -0 -0 -0 -0 -0 -0 -0 -0 -1 -1 -1 -1 -1 -1 -1 -1 -1 -2 -3 -3 -1 -1 -1 -1 -3 -1 1 1 3 4 4 0 3 1 -2 -0 -6 -2 -0 -2 -3 -1 -1 -2 -2 -2 -2 -2
-8 -8 -4 -2 -2 -1 -0 -1 -1 -1 -0 -0 -0 -1 -1 -1 -2 -2 -2 -1 -1 -1 -1 -4 -4 -2 -2 -2 -1 -1 -1 -0 1 2 1 3 3 -0 -0 -0 0 -2 -1 -0 -0 -3 -3 -2 -1 -1 -2 -2 -2 -2
-9 -6 -2 -1 -1 -1 -0 -1 -1 -1 -0 -1 -1 -2 -2 -3 -4 -4 -3 -2 -1 -2 -1 -2 -2 -2 -2 -1 -0 -0 -1 -0 1 0 1 3 -1 1 -1 -1 -0 -4 -2 1 3 -1 -2 -1 -0 -1 -1 -2 -2 -2
-5 -3 -1 -1 -1 -1 -1 -1 -1 -1 -1 -1 -2 -3 -4 -4 -4 -1 -1 -1 -1 -1 -1 -2 -5 -4 -2 -1 -1 0 1 1 1 -0 1 1 -0 1 3 1 -3 -3 -3 -2 -1 -1 -0 -1 -1 -1 -2 -2 -2 -3
-2 -1 -1 -1 -1 -1 -1 -1 -1 -1 -2 -4 -5 -5 -4 -2 -1 -1 -1 -1 -2 -1 -1 -1 -4 -3 -2 -2 -1 1 2 2 0 1 1 2 2 1 4 2 -3 -2 -2 -1 -1 -2 -2 -3 -2 -2 -2 -3 -3 -3
-1 -1 -1 -1 -2 -3 -3 -4 -4 -3 -3 -3 -2 -2 -1 -1 -2 -1 -1 -2 -1 -1 -1 -1 -3 -1 1 1 0 1 0 0 -0 -0 0 2 1 2 4 -1 -2 -2 -1 -1 -2 -2 -3 -3 -3 -3 -3 -3 -3 -3
-3 -3 -4 -4 -4 -5 -5 -5 -5 -3 -2 -1 -1 -1 -2 -2 -1 -1 -1 -1 -1 -1 -1 -1 -1 -0 0 -0 -0 -0 -0 1 0 2 2 2 3 3 0 -2 -2 -1 -1 -2 -2 -3 -3 -4 -4 -3 -4 -4 -4 -4
-5 -5 -5 -6 -6 -5 -5 -5 -3 -2 -1 -1 -1 -1 -2 -1 -2 -2 -2 -1 -2 -1 -1 -1 -2 0 0 -0 0 1 2 3 2 0 0 1 -0 -2 -3 -4 -3 -1 -1 -2 -2 -3 -3 -3 -4 -4 -4 -4 -4 -4
-7 -7 -6 -6 -6 -5 -5 -4 -2 -1 -1 -2 -4 -2 -2 -2 -1 -1 -1 -1 -1 0 -1 -2 -5 -2 0 1 3 1 0 -1 -1 0 -1 -1 -1 -3 -4 -4 -2 -1 -2 -2 -3 -4 -4 -4 -4 -3 -4 -4 -4 -4
-11 -10 -8 -7 -5 -5 -3 -1 -2 -2 -2 -3 -3 -2 -2 -1 -1 -0 0 0 1 -3 -1 -2 -2 -1 0 1 2 -1 -1 -3 -3 -2 -1 -1 -1 -2 -2 -2 -1 -2 -3 -4 -4 -4 -4 -4 -3 -4 -4 -4 -4 -4
-14 -12 -9 -6 -5 -4 -2 -2 -2 -2 -3 -3 -2 -2 -2 -2 1 0 1 -1 0 -0 -0 1 1 0 -0 0 1 -2 3 1 -2 0 -1 -2 -2 -2 -1 -2 -2 -3 -4 -4 -4 -3 -3 -3 -3 -3 -4 -4 -5 -5
-15 -14 -12 -8 -5 -5 -2 -2 -2 -2 -3 -2 -2 -1 -1 -1 -2 -3 -1 -1 0 -0 -1 0 0 1 1 1 0 3 0 -1 1 -0 -3 -1 -1 -0 -2 -2 -2 -3 -3 -3 -2 -3 -3 -3 -3 -4 -4 -5 -5 -6
-19 -12 -7 -6 -5 -3 -2 -2 -2 -2 -2 -2 -2 -0 -2 -3 -2 -2 -2 -0 -0 0 -0 1 1 0 -1 2 -1 -1 0 0 -2 -2 1 -1 -1 -0 -0 -1 -1 -4 -4 -5 -5 -5 -5 -5 -5 -5 -6 -6 -7 -7
-5 -3 -3 -1 -2 -2 -2 -2 -2 -3 -3 -3 -3 -1 -2 -1 -0 -2 -1 -1 -0 0 -0 -2 -3 -1 -1 -2 -2 -0 -4 -4 -0 -1 -2 -2 -2 -1 -1 -1 -3 -4 -4 -4 -4 -4 -4 -5 -6 -6 -7 -7 -7 -8
-3 -3 -2 -2 -2 -2 -3 -3 -3 -3 -2 -2 -2 -2 -2 -1 -1 -1 -1 -0 -0 -0 2 -5 -1 -4 -4 -4 -4 -5 -1 -0 -2 -2 -3 -3 -2 -2 -2 -3 -3 -3 -3 -4 -4 -5 -5 -5 -5 -6 -6 -7 -7 -8
-3 -2 -2 -3 -2 -3 -3 -3 -2 -3 -3 -2 -2 -2 -2 -2 -2 -1 -1 -1 -0 -2 -3 -3 -4 -3 -0 -2 -2 -1 -2 -2 -3 -3 -3 -3 -4 -4 -3 -3 -3 -3 -4 -4 -4 -4 -5 -5 -5 -6 -6 -7 -7 -7
-3 -3 -3 -3 -4 -2 -2 -3 -3 -4 -3 -3 -3 -3 -2 -2 -2 -2 -1 -0 -0 -1 -1 -2 -0 -2 -2 -2 -1 -2 -1 -2 -2 -3 -4 -3 -4 -4 -4 -4 -4 -4 -4 -5 -5 -4 -5 -5 -4 -5 -6 -7 -6 -7
-5 -5 -6 -6 -5 -3 -4 -4 -3 -5 -4 -3 -3 -2 -2 -2 -2 -2 -1 -1 -2 -2 -2 -2 -2 -2 -2 -2 -2 -2 -2 -2 -3 -3 -4 -4 -3 -3 -4 -4 -4 -5 -5 -5 -5 -5 -5 -5 -6 -6 -6 -5 -6 -6
-4 -4 -5 -7 -4 -4 -4 -4 -4 -4 -4 -4 -3 -2 -2 -1 -1 -1 -1 -3 -2 -2 -3 -2 -3 -3 -3 -3 -3 -3 -3 -3 -2 -2 -3 -4 -4 -4 -4 -4 -4 -4 -4 -4 -4 -4 -4 -5 -5 -5 -5 -6 -6 -6
-7 -6 -8 -9 -6 -5 -5 -5 -4 -4 -4 -3 -3 -3 -2 -1 -2 -2 -2 -2 -3 -3 -3 -3 -3 -3 -3 -3 -4 -3 -4 -4 -4 -4 -4 -5 -5 -5 -5 -5 -5 -5 -5 -5 -5 -5 -5 -6 -7 -7 -7 -7 -7 -8
-16 -16 -14 -11 -8 -6 -6 -6 -5 -5 -3 -4 -4 -4 -4 -3 -3 -4 -3 -4 -4 -4 -4 -4 -4 -4 -4 -4 -4 -5 -4 -4 -5 -5 -5 -5 -5 -6 -6 -6 -5 -5 -6 -5 -6 -6 -6 -7 -8 -9 -9 -9 -9 -9
-19 -17 -13 -8 -6 -5 -7 -6 -6 -6 -5 -5 -4 -4 -4 -4 -4 -4 -4 -4 -4 -4 -4 -4 -4 -4 -4 -4 -5 -5 -5 -5 -5 -5 -5 -5 -5 -6 -6 -6 -7 -7 -6 -6 -6 -6 -7 -7 -7 -8 -9 -9 -10 -11
-10 -10 -7 -6 -6 -6 -6 -5 -5 -7 -4 -5 -4 -4 -4 -4 -3 -4 -4 -4 -4 -4 -4 -4 -4 -3 -4 -4 -5 -6 -5 -5 -5 -6 -6 -6 -6 -6 -7 -7 -8 -9 -9 -8 -7 -7 -7 -7 -8 -8 -9 -9 -10 -11
-7 -6 -6 -6 -6 -6 -7 -5 -6 -5 -5 -4 -4 -6 -4 -4 -3 -3 -5 -5 -5 -5 -5 -5 -4 -4 -4 -4 -5 -5 -6 -6 -6 -6 -7 -7 -7 -6 -6 -7 -7 -8 -9 -9 -8 -8 -8 -8 -8 -9 -9 -10 -11 -11
-7 -6 -7 -7 -6 -7 -6 -6 -7 -6 -6 -5 -6 -5 -4 -4 -4 -5 -6 -7 -6 -6 -6 -5 -5 -5 -5 -6 -6 -6 -6 -6 -6 -6 -7 -7 -7 -7 -7 -7 -8 -9 -10 -10 -9 -9 -9 -9 -9 -10 -10 -10 -11 -12
-7 -7 -7 -6 -6 -7 -6 -6 -6 -6 -7 -7 -7 -5 -5 -6 -5 -6 -7 -8 -8 -7 -6 -6 -6 -6 -6 -6 -6 -6 -6 -6 -7 -7 -7 -7 -8 -8 -8 -8 -9 -10 -11 -11 -10 -10 -10 -10 -10 -11 -11 -11 -12 -12
-7 -6 -7 -8 -7 -7 -7 -7 -7 -8 -7 -7 -7 -7 -7 -7 -8 -8 -9 -8 -8 -8 -8 -7 -7 -7 -7 -7 -7 -7 -8 -8 -8 -8 -8 -8 -9 -10 -10 -10 -11 -11 -11 -12 -12 -11 -11 -11 -11 -11 -11 -12 -12 -12
-6 -6 -6 -7 -8 -8 -7 -7 -7 -7 -7 -7 -7 -8 -8 -7 -9 -9 -9 -9 -8 -8 -8 -8 -8 -8 -8 -8 -9 -8 -8 -8 -9 -9 -8 -8 -9 -11 -11 -11 -11 -11 -11 -12 -12 -12 -12 -12 -12 -12 -12 -12 -13 -13
-6 -6 -6 -6 -7 -6 -6 -7 -7 -7 -7 -7 -7 -7 -7 -7 -9 -10 -9 -9 -9 -9 -9 -9 -9 -9 -9 -9 -9 -9 -10 -10 -10 -10 -10 -10 -11 -11 -12 -12 -12 -12 -12 -11 -12 -12 -12 -12 -13 -13 -13 -13 -14 -14
-6 -7 -7 -7 -6 -6 -7 -6 -6 -6 -6 -7 -7 -7 -8 -8 -8 -8 -10 -10 -9 -9 -9 -9 -10 -10 -10 -10 -9 -10 -10 -10 -10 -10 -10 -10 -10 -11 -11 -11 -12 -12 -12 -12 -12 -13 -13 -13 -14 -15 -15 -15 -16 -16
-7 -7 -7 -7 -7 -8 -7 -7 -8 -8 -8 -9 -8 -8 -8 -8 -8 -9 -10 -11 -11 -11 -11 -10 -10 -10 -10 -10 -10 -10 -11 -11 -11 -11 -11 -11 -11 -11 -12 -12 -12 -13 -13 -13 -13 -15 -18 -20 -21 -21 -22 -23 -26 -28

GFSWCAN_850_dewp_159.txt.gz
Dewpoint
-6 -7 -7 -7 -7 -6 -7 -7 -7 -7 -9 -10 -8 -10 -8 -6 -0 0 -1 1 1 -1 -3 -3 -4 -4 -4 -4 -1 -1 -0 -0 2 1 1 0 0 -0 -0 -2 -1 1 4 4 3 4 4 1 1 2 1 -1 -2 -2
-7 -9 -8 -7 -5 -5 -4 -4 -5 -6 -7 -7 -5 -8 -6 -2 1 -0 -0 0 1 -1 -1 -2 -3 -2 -2 -1 -1 0 1 1 2 1 2 2 2 1 2 3 0 4 3 4 2 1 0 0 0 1 -0 -1 -2 -2
-8 -8 -7 -8 -7 -5 -4 -4 -5 -7 -6 -5 -4 -7 -2 -2 1 -0 -0 0 -0 0 -2 -2 -3 -4 -3 -3 -3 -0 -1 -0 1 0 1 2 3 1 2 2 3 3 2 4 3 0 2 2 1 -1 -1 -1 -2 -2
-8 -7 -7 -5 -6 -6 -5 -4 -4 -4 -4 -4 -4 -2 -1 0 0 -1 -1 -0 -1 -0 -1 -3 -5 -6 -8 -6 -5 -4 -4 -3 -1 -0 1 2 1 -1 1 2 3 0 2 4 3 2 2 2 2 1 -1 -2 -2 -2
-5 -5 -4 -4 -4 -5 -4 -4 -4 -6 -5 -4 -1 -1 -0 -1 -0 -1 -1 -0 -1 -0 -0 -1 -3 -4 -4 -4 -5 -3 -2 -1 -1 1 -0 0 1 -0 -0 1 1 -1 1 4 4 2 1 2 1 0 -1 -2 -2 -2
-7 -6 -5 -4 -5 -4 -4 -4 -4 -2 -3 -1 -1 -1 -1 -1 -0 -0 -0 -0 -0 -0 -1 -3 -4 -4 -4 -4 -2 -2 -2 -1 -0 0 1 0 -1 -0 1 1 -2 -0 0 1 2 1 -1 -1 -0 -1 -1 -1 -2 -2
-8 -7 -6 -8 -5 -3 -2 -2 -1 -1 -1 -0 -0 -0 -1 -1 -0 -0 -1 -1 -1 -1 -2 -2 -2 -5 -6 -4 -4 -2 -1 -1 -0 1 1 0 -1 1 2 2 -2 -3 -4 -3 -0 -1 -1 -1 -2 -1 -1 -2 -2 -3
-8 -6 -4 -1 -1 -0 -1 -1 0 -0 -0 -0 -1 -1 -0 -1 -1 -2 -2 -2 -1 -1 -3 -1 -2 -3 -3 -3 -1 -1 -0 0 1 1 -0 1 0 1 2 0 -1 -2 -3 -2 -1 -1 -2 -3 -2 -2 -2 -3 -3 -3
-3 -1 -1 -1 -1 -1 -1 -1 -1 -1 -1 -1 -1 -1 -1 -1 -2 -2 -3 -1 -1 -2 -1 -1 -1 -2 0 0 0 0 0 0 0 0 0 1 1 1 1 0 1 -1 -1 -2 -1 -1 -2 -3 -2 -3 -3 -3 -3 -3
-1 -1 -1 -1 -1 -1 -1 -1 -1 -1 -1 -1 -2 -4 -2 -4 -3 -2 -1 -1 -1 -1 -2 -1 -3 -1 -1 -0 -0 -0 -1 0 1 -1 1 2 1 -0 -1 -2 -2 -2 -1 -1 -2 -3 -3 -3 -3 -3 -3 -4 -3 -3
-2 -2 -2 -1 -1 -2 -2 -2 -3 -4 -4 -4 -2 -1 -2 -1 -2 -1 -2 -1 -2 -1 -2 -2 -2 -1 -1 1 0 -0 1 1 2 2 2 2 1 -1 -3 -2 -1 0 -1 -1 -2 -2 -2 -3 -3 -4 -4 -3 -3 -3
-5 -5 -4 -3 -3 -3 -3 -4 -4 -4 -3 -2 -2 -1 -1 -1 -1 -1 -2 -3 -2 -2 -1 -1 -2 -3 -2 -2 -1 1 2 1 3 1 2 -1 -1 -2 -3 -1 -1 1 0 -2 -3 -3 -3 -3 -3 -4 -3 -3 -3 -4
-6 -5 -4 -4 -3 -2 -2 -2 -2 -4 -3 -3 -3 -2 -2 -2 -2 -3 -3 -2 -1 -2 -1 -1 1 -0 -1 -0 -0 1 2 0 -1 -2 -1 -1 -1 -1 -1 -1 -2 -3 -3 -4 -4 -4 -3 -3 -3 -3 -3 -3 -3 -4
-6 -3 -2 -2 -2 -2 -2 -2 -2 -3 -5 -3 -2 -2 -3 -2 -2 -2 -0 -0 -1 -1 -2 0 1 -0 -0 -0 0 1 0 -1 -1 -1 -0 -1 -0 -1 -2 -3 -3 -4 -4 -3 -3 -3 -3 -3 -3 -3 -4 -4 -4 -4
-7 -4 -3 -2 -2 -2 -2 -3 -3 -4 -4 -2 -2 -2 -3 -2 -1 -1 -2 -3 -1 1 1 0 0 1 0 0 -0 0 -1 -1 -1 -0 1 -1 -1 -0 -2 -3 -3 -3 -3 -3 -2 -3 -3 -3 -3 -3 -4 -5 -6 -6
-5 -4 -4 -4 -2 -2 -2 -3 -4 -4 -3 -2 -2 -2 -2 -1 -1 -1 -1 -1 0 0 1 0 0 1 1 0 -0 -0 -1 -2 1 -1 -2 -2 -0 0 -0 -1 -3 -4 -5 -5 -5 -5 -5 -4 -4 -5 -6 -7 -7 -7
-6 -3 -3 -3 -3 -2 -3 -4 -3 -3 -2 -2 -2 -2 -3 -3 -1 -1 -1 -1 -1 1 1 0 1 -1 -2 -1 -1 -1 -0 -0 -2 -3 -3 -2 -2 -1 -0 -1 -3 -4 -5 -5 -5 -5 -6 -6 -6 -7 -7 -7 -7 -8
-2 -2 -2 -3 -2 -3 -3 -3 -3 -3 -2 -3 -2 -1 -2 -2 -2 -1 -1 -2 -0 0 0 1 -1 -2 -3 -1 -1 -1 -2 -3 -3 -3 -3 -3 -2 -2 -1 -2 -3 -3 -4 -4 -5 -5 -5 -5 -6 -6 -6 -7 -7 -8
-3 -3 -2 -3 -2 -2 -2 -3 -3 -1 -3 -4 -3 -3 -2 -2 -2 -2 -2 -1 -1 0 -0 -1 -2 -1 -1 -1 -1 -2 -2 -3 -3 -3 -3 -3 -3 -3 -2 -1 -3 -3 -4 -4 -4 -5 -5 -5 -4 -5 -6 -7 -7 -7
-5 -3 -3 -4 -4 -2 -2 -3 -3 -3 -4 -3 -4 -2 -2 -3 -2 -2 -1 -0 0 0 -0 -1 -1 -2 -2 -2 -3 -2 -2 -3 -3 -3 -4 -4 -4 -3 -3 -4 -4 -4 -4 -4 -4 -4 -4 -3 -4 -5 -6 -5 -5 -6
-4 -5 -6 -5 -4 -3 -3 -4 -4 -5 -5 -4 -5 -4 -1 -3 -2 -1 -1 -1 -1 0 -1 -2 -2 -3 -3 -3 -3 -2 -2 -3 -3 -3 -4 -4 -4 -3 -3 -3 -4 -4 -4 -4 -4 -5 -5 -5 -5 -5 -5 -5 -5 -5
-5 -5 -4 -4 -4 -5 -5 -4 -5 -6 -4 -3 -3 -3 -3 -2 -2 -3 -3 -1 -1 -2 -2 -2 -3 -4 -3 -3 -3 -3 -3 -3 -2 -3 -3 -4 -4 -4 -4 -4 -3 -3 -3 -4 -4 -4 -4 -5 -5 -5 -6 -6 -6 -7
-10 -7 -7 -6 -7 -6 -5 -6 -4 -5 -4 -3 -4 -4 -3 -3 -4 -4 -4 -4 -2 -3 -3 -3 -3 -3 -3 -3 -4 -4 -4 -4 -4 -4 -4 -4 -4 -4 -5 -4 -4 -5 -5 -5 -5 -6 -6 -7 -7 -8 -8 -8 -8 -8
-14 -12 -12 -7 -5 -4 -7 -4 -5 -6 -5 -4 -4 -4 -4 -3 -5 -4 -3 -3 -3 -4 -4 -4 -4 -4 -4 -4 -4 -5 -5 -5 -5 -5 -5 -5 -5 -5 -6 -6 -6 -5 -6 -6 -6 -6 -6 -7 -8 -8 -9 -9 -10 -10
-8 -8 -10 -7 -6 -5 -6 -6 -6 -5 -6 -5 -5 -5 -5 -5 -4 -3 -4 -3 -4 -4 -4 -4 -4 -4 -4 -5 -5 -5 -5 -5 -5 -6 -6 -6 -6 -6 -6 -7 -7 -7 -6 -7 -6 -7 -7 -7 -8 -9 -9 -10 -10 -10
-9 -6 -5 -6 -6 -6 -6 -6 -7 -7 -6 -6 -6 -3 -5 -5 -5 -5 -3 -3 -4 -4 -5 -4 -4 -4 -3 -4 -5 -5 -5 -5 -6 -6 -6 -6 -6 -6 -7 -7 -7 -7 -9 -7 -7 -7 -7 -8 -8 -9 -9 -9 -10 -10
-8 -7 -7 -7 -7 -7 -8 -7 -7 -7 -7 -7 -6 -6 -5 -4 -7 -5 -5 -5 -5 -4 -4 -4 -4 -4 -4 -4 -5 -5 -5 -5 -6 -6 -6 -6 -6 -6 -6 -7 -7 -7 -8 -9 -8 -8 -8 -8 -9 -9 -9 -9 -10 -10
-8 -8 -9 -6 -6 -7 -9 -8 -8 -8 -7 -7 -7 -8 -7 -7 -5 -6 -6 -6 -7 -6 -6 -5 -5 -4 -4 -4 -5 -5 -5 -6 -6 -6 -6 -6 -6 -7 -7 -7 -7 -7 -8 -9 -9 -9 -9 -9 -9 -9 -9 -10 -11 -11
-7 -6 -7 -8 -8 -7 -7 -8 -8 -9 -7 -8 -9 -8 -5 -5 -6 -8 -9 -9 -9 -8 -7 -7 -7 -6 -6 -6 -6 -6 -6 -6 -6 -7 -7 -7 -7 -8 -8 -8 -8 -9 -10 -11 -10 -10 -10 -10 -10 -10 -11 -11 -12 -12
-5 -7 -7 -7 -9 -9 -8 -7 -7 -6 -6 -7 -7 -7 -6 -7 -7 -7 -7 -8 -9 -8 -7 -7 -7 -7 -7 -7 -7 -8 -8 -8 -8 -8 -8 -8 -8 -9 -10 -10 -11 -11 -11 -11 -11 -11 -11 -11 -11 -11 -11 -12 -12 -13
-8 -8 -6 -6 -6 -7 -5 -5 -6 -7 -8 -7 -8 -7 -7 -7 -7 -7 -8 -8 -8 -8 -8 -8 -8 -8 -8 -8 -8 -9 -9 -9 -9 -8 -8 -8 -8 -9 -10 -11 -11 -12 -12 -12 -12 -11 -11 -11 -12 -12 -12 -13 -13 -13
-8 -7 -6 -5 -6 -6 -7 -7 -7 -6 -6 -5 -6 -6 -6 -6 -7 -7 -8 -9 -9 -9 -8 -8 -9 -9 -9 -9 -9 -9 -9 -9 -9 -9 -9 -10 -10 -10 -10 -11 -11 -11 -12 -12 -12 -12 -12 -12 -13 -13 -13 -14 -14 -14
-8 -7 -7 -7 -7 -6 -6 -7 -7 -7 -7 -7 -7 -8 -7 -6 -7 -8 -9 -9 -10 -10 -10 -9 -9 -9 -9 -9 -9 -9 -9 -9 -9 -10 -10 -10 -10 -10 -10 -11 -11 -11 -12 -12 -12 -13 -13 -13 -14 -14 -15 -16 -16 -16

GFSWCAN_850_dewp_162.txt.gz
Dewpoint
-6 -7 -8 -7 -7 -7 -8 -10 -12 -13 -12 -11 -10 -9 -11 -12 -9 -3 -1 -1 -0 0 -2 -3 -3 -4 -4 -5 -2 -1 -2 -2 -1 -2 -0 0 0 -0 -1 -3 -2 -0 2 2 2 4 3 -2 0 1 -1 -0 -1 -2
-6 -7 -9 -9 -9 -8 -6 -6 -7 -8 -10 -9 -9 -9 -11 -12 -9 -3 -2 -1 -0 1 -1 -2 -2 -3 -4 -4 -3 -1 -1 1 -0 0 1 2 2 1 2 2 -0 3 4 4 3 1 -1 1 1 1 0 -1 -2 -2
-8 -6 -5 -7 -8 -7 -7 -5 -5 -6 -6 -7 -8 -9 -11 -10 -9 -4 -1 -1 -0 -0 -2 -3 -3 -2 -3 -3 -3 -2 -0 1 1 1 1 2 1 1 2 1 2 1 1 2 2 2 2 2 2 1 -0 -1 -1 -2
-8 -6 -6 -6 -8 -8 -6 -7 -4 -4 -5 -6 -7 -9 -8 -7 -6 -2 -0 -1 -0 -0 -1 -4 -4 -4 -4 -3 -3 -4 -2 -1 -1 1 1 2 2 -1 0 0 1 -0 -1 2 3 2 2 2 2 -0 -0 -2 -2 -1
-5 -5 -6 -6 -5 -5 -6 -6 -5 -5 -4 -6 -8 -8 -4 -5 -1 -1 -1 -0 -0 -1 -1 -2 -4 -6 -6 -6 -7 -6 -6 -3 -1 0 -1 -1 -1 -1 -1 -0 0 -1 1 3 4 2 3 3 1 -1 1 -2 -2 -2
-6 -5 -5 -5 -5 -4 -4 -4 -5 -5 -5 -5 -4 -5 -4 -4 -1 -1 -1 -1 -0 -1 -2 -4 -4 -5 -5 -5 -4 -4 -4 -1 -1 -1 -0 -1 -2 -1 0 -0 -1 -2 -0 -0 1 0 0 -0 1 -0 2 -2 -2 -2
-8 -8 -6 -5 -4 -4 -4 -4 -4 -5 -5 -6 -6 -4 -1 -1 -1 -1 -1 -1 -0 -2 -2 -3 -3 -6 -7 -4 -4 -2 -2 -2 -1 -1 1 0 0 -1 1 1 -2 -2 -2 -2 -3 -2 0 -0 -0 -0 0 -1 -2 -2
-12 -9 -9 -6 -4 -4 -4 -4 -5 -5 -6 -7 -4 -1 -1 -1 -1 -1 -2 -0 -2 -1 -2 -2 -3 -3 -2 -3 -1 -1 -1 -1 -1 0 0 1 -0 -0 1 -2 -4 -4 -3 -2 -2 -2 -1 -2 -2 -1 -1 -2 -2 -3
-2 -2 -1 -1 -1 -2 -3 -4 -3 -3 -2 -1 -1 -2 -1 -1 -2 -1 -1 -0 -1 -2 -2 -2 -2 -3 0 0 -0 0 0 0 0 0 0 1 1 0 -1 -1 -1 -3 -1 -2 -1 -1 -1 -2 -2 -2 -2 -3 -3 -3
-1 -1 -1 -1 -1 -0 -2 -2 -1 -2 -1 -1 -1 -1 -2 -1 -1 -1 -2 -2 -2 -2 -2 -2 -3 -2 -0 -0 -0 -0 -0 -1 0 0 -0 -0 -1 -4 -4 -3 -2 -1 -3 -3 0 -1 -2 -2 -2 -2 -3 -3 -3 -3
-1 -1 -1 -1 -1 -1 -1 -1 -1 -1 -1 -3 -2 -2 -2 -1 -4 -2 -2 -1 -2 -2 -2 -2 -2 -1 -1 -1 0 -1 0 0 2 0 -0 1 1 -1 -2 -2 -2 -2 -1 -1 -1 -1 -1 -0 -3 -3 -3 -3 -3 -3
-2 -2 -2 -2 -2 -1 -1 -1 -2 -4 -5 -4 -2 -1 -2 -2 -1 -3 -5 -3 -2 -2 -2 -2 -2 -3 -0 -1 -0 -0 1 1 2 0 1 1 -1 -2 -2 -1 0 0 -0 0 -1 -2 -2 -2 -3 -3 -4 -3 -3 -3
-2 -2 -3 -3 -3 -4 -3 -3 -4 -3 -2 -3 -4 -3 -3 -3 -3 -3 -3 -2 -3 -3 -2 -2 -1 -3 -1 -1 -1 0 1 1 -0 1 -1 -1 -1 -0 0 0 1 1 1 -0 -2 -3 -3 -3 -4 -4 -3 -3 -3 -4
-2 -2 -2 -2 -3 -3 -3 -4 -4 -5 -6 -5 -3 -3 -4 -4 -4 -3 -3 -3 -3 0 -1 -0 -0 -0 -1 -1 -2 1 0 -0 -2 -2 -1 -1 -1 -1 -3 -3 -4 -3 -2 -3 -3 -3 -3 -3 -3 -3 -3 -3 -3 -4
-3 -3 -3 -3 -3 -3 -4 -4 -6 -6 -5 -2 -3 -4 -4 -3 -1 -1 -1 -3 -2 0 0 -1 -0 -0 0 -0 -1 -1 -1 -1 -1 -1 1 -1 -0 -1 -3 -3 -3 -3 -3 -3 -3 -3 -3 -3 -3 -4 -4 -4 -4 -4
-3 -3 -3 -3 -3 -3 -3 -4 -4 -5 -4 -3 -2 -4 -2 -3 -3 -2 -2 -2 -1 -0 0 -0 0 0 0 -0 0 -0 -1 -2 -1 -1 -2 -2 -1 -1 -2 -3 -3 -3 -3 -3 -3 -3 -3 -3 -3 -4 -5 -5 -6 -7
-4 -3 -3 -3 -2 -3 -4 -5 -5 -4 -3 -3 -2 -2 -2 -3 -2 -2 -2 -2 -1 -0 0 0 1 1 -0 1 -1 -2 -2 -1 -2 -3 -3 -3 -2 -0 -1 -2 -4 -5 -5 -5 -5 -5 -5 -4 -5 -6 -6 -7 -7 -8
-3 -3 -3 -3 -3 -3 -4 -4 -4 -3 -3 -3 -3 -2 -2 -2 -3 -2 -2 -1 -1 -0 -0 1 0 0 -4 -2 -2 -2 -2 -3 -3 -3 -3 -3 -3 -2 -1 -1 -3 -4 -5 -5 -5 -6 -6 -6 -7 -7 -7 -7 -8 -8
-2 -3 -3 -3 -3 -2 -3 -3 -3 -2 -3 -5 -4 -3 -3 -2 -2 -2 -2 -2 -1 -1 -0 0 -1 -1 -1 -2 -1 -1 -2 -3 -4 -4 -4 -4 -3 -3 -2 -1 -2 -3 -4 -4 -5 -5 -5 -5 -6 -6 -6 -7 -7 -8
-3 -3 -3 -4 -4 -3 -2 -3 -2 -2 -4 -5 -4 -3 -2 -2 -3 -2 -1 -1 -0 0 -1 -0 -1 -2 -2 -2 -2 -2 -2 -3 -4 -3 -3 -4 -3 -3 -3 -2 -1 -2 -4 -4 -5 -5 -5 -4 -4 -5 -6 -7 -6 -6
-5 -5 -5 -5 -3 -3 -3 -4 -4 -6 -6 -6 -5 -4 -3 -2 -2 -1 -1 -2 -1 -0 -1 -2 -2 -3 -3 -3 -3 -3 -3 -3 -4 -4 -4 -4 -4 -3 -3 -3 -3 -4 -4 -4 -4 -4 -3 -4 -4 -5 -6 -5 -5 -5
-6 -5 -5 -4 -5 -4 -4 -4 -5 -5 -6 -4 -4 -3 -3 -2 -2 -4 -4 -2 -2 -2 -2 -3 -3 -3 -3 -3 -3 -3 -3 -3 -3 -3 -2 -3 -4 -3 -3 -4 -4 -4 -4 -4 -4 -4 -4 -4 -5 -5 -5 -5 -5 -6
-11 -7 -7 -6 -7 -7 -6 -6 -4 -5 -5 -4 -4 -4 -4 -4 -4 -4 -5 -5 -4 -3 -3 -3 -3 -3 -4 -4 -4 -3 -4 -4 -4 -3 -3 -4 -4 -4 -4 -4 -4 -4 -4 -4 -4 -4 -5 -5 -6 -6 -7 -7 -7 -7
-12 -13 -12 -8 -6 -6 -6 -6 -5 -5 -5 -5 -5 -5 -5 -3 -4 -4 -4 -4 -4 -4 -4 -4 -4 -4 -4 -4 -4 -4 -4 -5 -5 -4 -4 -4 -4 -4 -5 -4 -4 -5 -5 -5 -6 -6 -6 -6 -7 -8 -8 -8 -9 -9
-8 -8 -12 -9 -6 -6 -10 -10 -9 -6 -8 -7 -6 -8 -6 -5 -7 -6 -6 -5 -4 -4 -4 -5 -5 -4 -4 -4 -5 -5 -5 -5 -5 -5 -5 -5 -5 -5 -5 -6 -6 -6 -6 -6 -6 -7 -7 -7 -8 -8 -9 -9 -10 -10
-14 -6 -8 -7 -8 -7 -7 -8 -9 -9 -8 -8 -8 -4 -5 -7 -6 -6 -4 -4 -4 -5 -5 -5 -4 -4 -4 -4 -5 -5 -5 -5 -5 -6 -6 -6 -6 -6 -6 -6 -6 -7 -7 -7 -7 -7 -7 -8 -8 -9 -9 -9 -10 -10
-10 -10 -7 -7 -7 -7 -9 -7 -7 -9 -9 -9 -9 -8 -9 -6 -9 -7 -5 -5 -5 -5 -5 -5 -4 -4 -4 -4 -4 -5 -5 -5 -6 -6 -6 -6 -6 -6 -7 -7 -7 -6 -7 -8 -8 -7 -8 -8 -9 -9 -9 -9 -10 -10
-8 -8 -11 -7 -7 -7 -12 -11 -11 -10 -10 -7 -7 -9 -9 -9 -7 -6 -7 -9 -9 -8 -6 -5 -5 -5 -4 -4 -4 -4 -5 -5 -6 -6 -6 -6 -7 -7 -7 -7 -7 -7 -7 -7 -9 -8 -8 -9 -9 -8 -9 -10 -9 -10
-6 -6 -6 -8 -7 -8 -7 -10 -10 -8 -7 -8 -11 -10 -9 -5 -6 -7 -8 -8 -9 -9 -9 -8 -8 -7 -6 -5 -6 -6 -6 -6 -6 -6 -6 -6 -7 -7 -7 -7 -7 -7 -7 -8 -9 -9 -9 -9 -9 -10 -10 -10 -10 -10
-6 -6 -7 -8 -11 -12 -10 -7 -7 -7 -6 -7 -7 -7 -7 -7 -7 -7 -8 -8 -7 -8 -8 -8 -8 -8 -7 -7 -7 -7 -7 -7 -7 -7 -7 -7 -7 -7 -8 -8 -8 -9 -9 -10 -11 -11 -10 -10 -10 -10 -11 -11 -11 -12
-8 -8 -8 -8 -8 -8 -8 -6 -6 -7 -7 -8 -8 -7 -8 -8 -7 -7 -7 -7 -7 -8 -8 -8 -8 -8 -9 -9 -8 -8 -8 -8 -8 -8 -8 -8 -8 -8 -8 -10 -11 -11 -11 -11 -11 -11 -11 -11 -11 -11 -12 -12 -12 -13
-8 -7 -7 -12 -8 -9 -9 -8 -8 -7 -8 -7 -7 -6 -6 -6 -6 -7 -8 -9 -9 -9 -9 -8 -8 -8 -9 -9 -9 -9 -9 -9 -9 -9 -9 -9 -8 -8 -9 -10 -11 -11 -12 -12 -11 -11 -11 -12 -12 -12 -12 -13 -13 -14
-9 -9 -9 -7 -7 -7 -6 -6 -7 -7 -7 -7 -7 -6 -6 -6 -7 -9 -9 -9 -9 -10 -10 -9 -9 -9 -9 -9 -9 -9 -9 -9 -9 -9 -9 -9 -9 -10 -10 -10 -11 -11 -11 -11 -12 -12 -12 -12 -13 -13 -13 -14 -14 -15